Observation data for Wall on 12/10/2018      Previous  Date       Current Mesonet Observations  Soil Data  Daily Summary Page  Observations in Plain Language
KWA1 100600Z 26004KT M01/M02 A3041 RMK A01 T10081017  RH  094%=      5-min Rain = 0
KWA1 100601Z 26004KT M01/M02 A3041 RMK A01 T10081016  RH  094%=      5-min Rain = 0
KWA1 100602Z 25004KT M01/M02 A3041 RMK A01 T10081016  RH  094%=      5-min Rain = 0
KWA1 100603Z 25004KT M01/M02 A3041 RMK A01 T10091016  RH  095%=      5-min Rain = 0
KWA1 100604Z 25004KT M01/M02 A3041 RMK A01 T10091016  RH  095%=      5-min Rain = 0
KWA1 100605Z 25003KT M01/M02 A3041 RMK A01 T10091016  RH  095%=      5-min Rain = 0
KWA1 100606Z 25003KT M01/M02 A3041 RMK A01 T10091016  RH  095%=      5-min Rain = 0
KWA1 100607Z 25004KT M01/M02 A3041 RMK A01 T10091016  RH  095%=      5-min Rain = 0
KWA1 100608Z 25003KT M01/M02 A3041 RMK A01 T10101016  RH  095%=      5-min Rain = 0
KWA1 100609Z 25004KT M01/M02 A3041 RMK A01 T10091016  RH  096%=      5-min Rain = 0
KWA1 100610Z 26004KT M01/M02 A3041 RMK A01 T10091015  RH  096%=      5-min Rain = 0
KWA1 100611Z 26004KT M01/M02 A3041 RMK A01 T10091015  RH  096%=      5-min Rain = 0
KWA1 100612Z 26004KT M01/M02 A3041 RMK A01 T10091015  RH  096%=      5-min Rain = 0
KWA1 100613Z 26004KT M01/M02 A3041 RMK A01 T10091015  RH  096%=      5-min Rain = 0
KWA1 100614Z 26004KT M01/M02 A3041 RMK A01 T10091015  RH  096%=      5-min Rain = 0
KWA1 100615Z 26004KT M01/M02 A3041 RMK A01 T10091015  RH  096%=      5-min Rain = 0
KWA1 100616Z 25004KT M01/M02 A3041 RMK A01 T10091015  RH  096%=      5-min Rain = 0
KWA1 100617Z 25004KT M01/M02 A3041 RMK A01 T10091015  RH  096%=      5-min Rain = 0
KWA1 100618Z 25004KT M01/M02 A3041 RMK A01 T10091015  RH  096%=      5-min Rain = 0
KWA1 100619Z 25004KT M01/M02 A3041 RMK A01 T10091015  RH  096%=      5-min Rain = 0
KWA1 100620Z 25004KT M01/M02 A3041 RMK A01 T10091015  RH  096%=      5-min Rain = 0
KWA1 100621Z 25004KT M01/M01 A3041 RMK A01 T10091014  RH  096%=      5-min Rain = 0
KWA1 100622Z 25005KT M01/M01 A3041 RMK A01 T10091014  RH  097%=      5-min Rain = 0
KWA1 100623Z 25005KT M01/M01 A3041 RMK A01 T10081013  RH  097%=      5-min Rain = 0
KWA1 100624Z 26005KT M01/M01 A3041 RMK A01 T10081013  RH  097%=      5-min Rain = 0
KWA1 100625Z 26005KT M01/M01 A3041 RMK A01 T10071011  RH  097%=      5-min Rain = 0
KWA1 100626Z 26006KT M01/M01 A3041 RMK A01 T10071012  RH  097%=      5-min Rain = 0
KWA1 100627Z 25006KT M01/M01 A3041 RMK A01 T10071012  RH  096%=      5-min Rain = 0
KWA1 100628Z 25006KT M01/M01 A3041 RMK A01 T10071012  RH  097%=      5-min Rain = 0
KWA1 100629Z 25005KT M01/M01 A3041 RMK A01 T10071012  RH  097%=      5-min Rain = 0
KWA1 100630Z 25005KT M01/M01 A3041 RMK A01 T10061011  RH  097%=      5-min Rain = 0
KWA1 100631Z 25005KT M01/M01 A3041 RMK A01 T10061011  RH  097%=      5-min Rain = 0
KWA1 100632Z 25005KT M01/M01 A3041 RMK A01 T10061011  RH  096%=      5-min Rain = 0
KWA1 100633Z 25006KT M01/M01 A3041 RMK A01 T10061012  RH  096%=      5-min Rain = 0
KWA1 100634Z 25006KT M01/M01 A3041 RMK A01 T10071013  RH  096%=      5-min Rain = 0
KWA1 100635Z 25006KT M01/M01 A3041 RMK A01 T10081014  RH  096%=      5-min Rain = 0
KWA1 100636Z 24006KT M01/M01 A3041 RMK A01 T10081014  RH  096%=      5-min Rain = 0
KWA1 100637Z 25006KT M01/M01 A3041 RMK A01 T10081014  RH  096%=      5-min Rain = 0
KWA1 100638Z 24007KT M01/M01 A3041 RMK A01 T10091014  RH  096%=      5-min Rain = 0
KWA1 100639Z 24007KT M01/M01 A3041 RMK A01 T10081014  RH  096%=      5-min Rain = 0
KWA1 100640Z 24007KT M01/M01 A3041 RMK A01 T10081013  RH  096%=      5-min Rain = 0
KWA1 100641Z 24007KT M01/M01 A3041 RMK A01 T10081013  RH  096%=      5-min Rain = 0
KWA1 100642Z 24007KT M01/M01 A3041 RMK A01 T10081013  RH  096%=      5-min Rain = 0
KWA1 100643Z 24007KT M01/M01 A3041 RMK A01 T10081013  RH  096%=      5-min Rain = 0
KWA1 100644Z 24007KT M01/M01 A3041 RMK A01 T10081013  RH  096%=      5-min Rain = 0
KWA1 100645Z 24007KT M01/M01 A304 RMK A01 T10081013  RH  096%=      5-min Rain = 0
KWA1 100646Z 24007KT M01/M01 A304 RMK A01 T10081013  RH  096%=      5-min Rain = 0
KWA1 100647Z 24006KT M01/M01 A304 RMK A01 T10071013  RH  096%=      5-min Rain = 0
KWA1 100648Z 24006KT M01/M01 A304 RMK A01 T10071012  RH  096%=      5-min Rain = 0
KWA1 100649Z 24006KT M01/M01 A304 RMK A01 T10071012  RH  096%=      5-min Rain = 0
KWA1 100650Z 24006KT M01/M01 A304 RMK A01 T10071012  RH  096%=      5-min Rain = 0
KWA1 100651Z 24006KT M01/M01 A304 RMK A01 T10071012  RH  096%=      5-min Rain = 0
KWA1 100652Z 24006KT M01/M01 A304 RMK A01 T10061012  RH  096%=      5-min Rain = 0
KWA1 100653Z 25006KT M01/M01 A304 RMK A01 T10071012  RH  096%=      5-min Rain = 0
KWA1 100654Z 25006KT M01/M01 A304 RMK A01 T10071012  RH  096%=      5-min Rain = 0
KWA1 100655Z 25006KT M01/M01 A304 RMK A01 T10071012  RH  096%=      5-min Rain = 0
KWA1 100656Z 25006KT M01/M01 A304 RMK A01 T10071012  RH  096%=      5-min Rain = 0
KWA1 100657Z 24005KT M01/M01 A304 RMK A01 T10071012  RH  096%=      5-min Rain = 0
KWA1 100658Z 25005KT M01/M01 A304 RMK A01 T10071012  RH  096%=      5-min Rain = 0
KWA1 100659Z 25005KT M01/M01 A304 RMK A01 T10081013  RH  096%=      5-min Rain = 0
KWA1 100700Z 25005KT M01/M01 A304 RMK A01 T10081013  RH  096%=      5-min Rain = 0
KWA1 100701Z 25005KT M01/M01 A304 RMK A01 T10081013  RH  096%=      5-min Rain = 0
KWA1 100702Z 25005KT M01/M01 A304 RMK A01 T10081013  RH  096%=      5-min Rain = 0
KWA1 100703Z 25006KT M01/M01 A304 RMK A01 T10081013  RH  096%=      5-min Rain = 0
KWA1 100704Z 25006KT M01/M01 A304 RMK A01 T10081014  RH  096%=      5-min Rain = 0
KWA1 100705Z 25006KT M01/M01 A304 RMK A01 T10081014  RH  096%=      5-min Rain = 0
KWA1 100706Z 25006KT M01/M01 A304 RMK A01 T10091014  RH  096%=      5-min Rain = 0
KWA1 100707Z 25006KT M01/M01 A304 RMK A01 T10081013  RH  096%=      5-min Rain = 0
KWA1 100708Z 25006KT M01/M01 A304 RMK A01 T10081013  RH  097%=      5-min Rain = 0
KWA1 100709Z 25006KT M01/M01 A304 RMK A01 T10081013  RH  097%=      5-min Rain = 0
KWA1 100710Z 25006KT M01/M01 A304 RMK A01 T10091013  RH  097%=      5-min Rain = 0
KWA1 100711Z 25006KT M01/M01 A304 RMK A01 T10081012  RH  097%=      5-min Rain = 0
KWA1 100712Z 25006KT M01/M01 A304 RMK A01 T10071012  RH  097%=      5-min Rain = 0
KWA1 100713Z 25006KT M01/M01 A304 RMK A01 T10071011  RH  097%=      5-min Rain = 0
KWA1 100714Z 25005KT M01/M01 A304 RMK A01 T10071011  RH  097%=      5-min Rain = 0
KWA1 100715Z 25005KT M01/M01 A304 RMK A01 T10071011  RH  097%=      5-min Rain = 0
KWA1 100716Z 25005KT M01/M01 A304 RMK A01 T10071012  RH  096%=      5-min Rain = 0
KWA1 100717Z 25005KT M01/M01 A304 RMK A01 T10071012  RH  096%=      5-min Rain = 0
KWA1 100718Z 25005KT M01/M01 A304 RMK A01 T10071012  RH  096%=      5-min Rain = 0
KWA1 100719Z 25006KT M01/M01 A304 RMK A01 T10071012  RH  096%=      5-min Rain = 0
KWA1 100720Z 25005KT M01/M01 A304 RMK A01 T10071013  RH  096%=      5-min Rain = 0
KWA1 100721Z 25005KT M01/M01 A304 RMK A01 T10071013  RH  096%=      5-min Rain = 0
KWA1 100722Z 25006KT M01/M01 A304 RMK A01 T10071013  RH  096%=      5-min Rain = 0
KWA1 100723Z 25006KT M01/M01 A304 RMK A01 T10071014  RH  095%=      5-min Rain = 0
KWA1 100724Z 25005KT M01/M01 A304 RMK A01 T10071014  RH  095%=      5-min Rain = 0
KWA1 100725Z 24005KT M01/M01 A304 RMK A01 T10071014  RH  095%=      5-min Rain = 0
KWA1 100726Z 24006KT M01/M02 A304 RMK A01 T10081015  RH  095%=      5-min Rain = 0
KWA1 100727Z 24006KT M01/M02 A304 RMK A01 T10081015  RH  095%=      5-min Rain = 0
KWA1 100728Z 24005KT M01/M02 A304 RMK A01 T10081015  RH  095%=      5-min Rain = 0
KWA1 100729Z 24006KT M01/M02 A304 RMK A01 T10081016  RH  094%=      5-min Rain = 0
KWA1 100730Z 24006KT M01/M02 A304 RMK A01 T10071015  RH  094%=      5-min Rain = 0
KWA1 100731Z 24006KT M01/M02 A304 RMK A01 T10081016  RH  094%=      5-min Rain = 0
KWA1 100732Z 24006KT M01/M02 A304 RMK A01 T10071015  RH  094%=      5-min Rain = 0
KWA1 100733Z 24006KT M01/M02 A304 RMK A01 T10071015  RH  094%=      5-min Rain = 0
KWA1 100734Z 24006KT M01/M02 A304 RMK A01 T10071016  RH  094%=      5-min Rain = 0
KWA1 100735Z 24006KT M01/M02 A304 RMK A01 T10071016  RH  093%=      5-min Rain = 0
KWA1 100736Z 24006KT M01/M02 A304 RMK A01 T10061016  RH  093%=      5-min Rain = 0
KWA1 100737Z 24005KT M01/M02 A304 RMK A01 T10061016  RH  093%=      5-min Rain = 0
KWA1 100738Z 24005KT M01/M02 A304 RMK A01 T10071017  RH  093%=      5-min Rain = 0
KWA1 100739Z 24005KT M01/M02 A304 RMK A01 T10071017  RH  093%=      5-min Rain = 0
KWA1 100740Z 25005KT M01/M02 A304 RMK A01 T10071017  RH  093%=      5-min Rain = 0
KWA1 100741Z 25005KT M01/M02 A304 RMK A01 T10071018  RH  093%=      5-min Rain = 0
KWA1 100742Z 25005KT M01/M02 A304 RMK A01 T10071018  RH  093%=      5-min Rain = 0
KWA1 100743Z 25005KT M01/M02 A304 RMK A01 T10081018  RH  093%=      5-min Rain = 0
KWA1 100744Z 25004KT M01/M02 A304 RMK A01 T10081018  RH  093%=      5-min Rain = 0
KWA1 100745Z 26004KT M01/M02 A304 RMK A01 T10091019  RH  093%=      5-min Rain = 0
KWA1 100746Z 26004KT M01/M02 A304 RMK A01 T10091019  RH  093%=      5-min Rain = 0
KWA1 100747Z 25004KT M01/M02 A304 RMK A01 T10101019  RH  093%=      5-min Rain = 0
KWA1 100748Z 25005KT M01/M02 A304 RMK A01 T10101019  RH  093%=      5-min Rain = 0
KWA1 100749Z 25005KT M01/M02 A304 RMK A01 T10101019  RH  093%=      5-min Rain = 0
KWA1 100750Z 25005KT M01/M02 A304 RMK A01 T10101019  RH  093%=      5-min Rain = 0
KWA1 100751Z 25005KT M01/M02 A304 RMK A01 T10101020  RH  093%=      5-min Rain = 0
KWA1 100752Z 26005KT M01/M02 A304 RMK A01 T10101020  RH  093%=      5-min Rain = 0
KWA1 100753Z 25005KT M01/M02 A304 RMK A01 T10111020  RH  093%=      5-min Rain = 0
KWA1 100754Z 25005KT M01/M02 A3039 RMK A01 T10111021  RH  093%=      5-min Rain = 0
KWA1 100755Z 25005KT M01/M02 A3039 RMK A01 T10121021  RH  093%=      5-min Rain = 0
KWA1 100756Z 25005KT M01/M02 A3039 RMK A01 T10121021  RH  093%=      5-min Rain = 0
KWA1 100757Z 25005KT M01/M02 A3039 RMK A01 T10131022  RH  093%=      5-min Rain = 0
KWA1 100758Z 25005KT M01/M02 A3039 RMK A01 T10131023  RH  093%=      5-min Rain = 0
KWA1 100759Z 25005KT M01/M02 A3039 RMK A01 T10131022  RH  094%=      5-min Rain = 0
KWA1 100800Z 25006KT M01/M02 A3039 RMK A01 T10141022  RH  094%=      5-min Rain = 0
KWA1 100801Z 24006KT M01/M02 A3039 RMK A01 T10131022  RH  094%=      5-min Rain = 0
KWA1 100802Z 24007KT M01/M02 A3039 RMK A01 T10131021  RH  094%=      5-min Rain = 0
KWA1 100803Z 24006KT M01/M02 A3039 RMK A01 T10121021  RH  094%=      5-min Rain = 0
KWA1 100804Z 24006KT M01/M02 A3039 RMK A01 T10111020  RH  094%=      5-min Rain = 0
KWA1 100805Z 24006KT M01/M02 A3039 RMK A01 T10111020  RH  094%=      5-min Rain = 0
KWA1 100806Z 24006KT M01/M02 A3039 RMK A01 T10101020  RH  093%=      5-min Rain = 0
KWA1 100807Z 24005KT M01/M02 A3039 RMK A01 T10101020  RH  093%=      5-min Rain = 0
KWA1 100808Z 24006KT M01/M02 A3039 RMK A01 T10101021  RH  093%=      5-min Rain = 0
KWA1 100809Z 24005KT M01/M02 A3039 RMK A01 T10101021  RH  093%=      5-min Rain = 0
KWA1 100810Z 24006KT M01/M02 A3039 RMK A01 T10101021  RH  092%=      5-min Rain = 0
KWA1 100811Z 24006KT M01/M02 A3039 RMK A01 T10111022  RH  092%=      5-min Rain = 0
KWA1 100812Z 24005KT M01/M02 A304 RMK A01 T10111022  RH  092%=      5-min Rain = 0
KWA1 100813Z 24006KT M01/M02 A304 RMK A01 T10111022  RH  092%=      5-min Rain = 0
KWA1 100814Z 24005KT M01/M02 A304 RMK A01 T10111022  RH  092%=      5-min Rain = 0
KWA1 100815Z 24005KT M01/M02 A304 RMK A01 T10111022  RH  092%=      5-min Rain = 0
KWA1 100816Z 24005KT M01/M02 A3039 RMK A01 T10121022  RH  092%=      5-min Rain = 0
KWA1 100817Z 24006KT M01/M02 A3039 RMK A01 T10121023  RH  093%=      5-min Rain = 0
KWA1 100818Z 24006KT M01/M02 A3039 RMK A01 T10121023  RH  093%=      5-min Rain = 0
KWA1 100819Z 24006KT M01/M02 A3039 RMK A01 T10121023  RH  093%=      5-min Rain = 0
KWA1 100820Z 24006KT M01/M02 A3039 RMK A01 T10121023  RH  093%=      5-min Rain = 0
KWA1 100821Z 24006KT M01/M02 A3039 RMK A01 T10131023  RH  093%=      5-min Rain = 0
KWA1 100822Z 25006KT M01/M02 A3039 RMK A01 T10131023  RH  093%=      5-min Rain = 0
KWA1 100823Z 25006KT M01/M02 A3039 RMK A01 T10131023  RH  093%=      5-min Rain = 0
KWA1 100824Z 25006KT M01/M02 A3039 RMK A01 T10131023  RH  093%=      5-min Rain = 0
KWA1 100825Z 25006KT M01/M02 A3039 RMK A01 T10131023  RH  093%=      5-min Rain = 0
KWA1 100826Z 25006KT M01/M02 A3039 RMK A01 T10131022  RH  093%=      5-min Rain = 0
KWA1 100827Z 25006KT M01/M02 A3039 RMK A01 T10121022  RH  093%=      5-min Rain = 0
KWA1 100828Z 25006KT M01/M02 A3039 RMK A01 T10111021  RH  093%=      5-min Rain = 0
KWA1 100829Z 25007KT M01/M02 A3039 RMK A01 T10111020  RH  094%=      5-min Rain = 0
KWA1 100830Z 25006KT M01/M02 A3039 RMK A01 T10101019  RH  094%=      5-min Rain = 0
KWA1 100831Z 25006KT M01/M02 A3039 RMK A01 T10101019  RH  093%=      5-min Rain = 0
KWA1 100832Z 25006KT M01/M02 A3039 RMK A01 T10101019  RH  093%=      5-min Rain = 0
KWA1 100833Z 25005KT M01/M02 A3039 RMK A01 T10091019  RH  093%=      5-min Rain = 0
KWA1 100834Z 25006KT M01/M02 A3039 RMK A01 T10091020  RH  093%=      5-min Rain = 0
KWA1 100835Z 25005KT M01/M02 A3039 RMK A01 T10091020  RH  092%=      5-min Rain = 0
KWA1 100836Z 25006KT M01/M02 A3039 RMK A01 T10091021  RH  092%=      5-min Rain = 0
KWA1 100837Z 25006KT M01/M02 A3039 RMK A01 T10101021  RH  092%=      5-min Rain = 0
KWA1 100838Z 25006KT M01/M02 A3039 RMK A01 T10091021  RH  092%=      5-min Rain = 0
KWA1 100839Z 25006KT M01/M02 A3039 RMK A01 T10091021  RH  092%=      5-min Rain = 0
KWA1 100840Z 25006KT M01/M02 A3039 RMK A01 T10091020  RH  092%=      5-min Rain = 0
KWA1 100841Z 25006KT M01/M02 A3039 RMK A01 T10091020  RH  092%=      5-min Rain = 0
KWA1 100842Z 25006KT M01/M02 A3039 RMK A01 T10101020  RH  092%=      5-min Rain = 0
KWA1 100843Z 25006KT M01/M02 A3039 RMK A01 T10101021  RH  093%=      5-min Rain = 0
KWA1 100844Z 25006KT M01/M02 A3039 RMK A01 T10101021  RH  093%=      5-min Rain = 0
KWA1 100845Z 24006KT M01/M02 A3039 RMK A01 T10101021  RH  093%=      5-min Rain = 0
KWA1 100846Z 24006KT M01/M02 A3039 RMK A01 T10101021  RH  093%=      5-min Rain = 0
KWA1 100847Z 24006KT M01/M02 A3039 RMK A01 T10101021  RH  093%=      5-min Rain = 0
KWA1 100848Z 25006KT M01/M02 A3039 RMK A01 T10101021  RH  093%=      5-min Rain = 0
KWA1 100849Z 25006KT M01/M02 A3039 RMK A01 T10101020  RH  093%=      5-min Rain = 0
KWA1 100850Z 25006KT M01/M02 A3039 RMK A01 T10101021  RH  093%=      5-min Rain = 0
KWA1 100851Z 25006KT M01/M02 A3039 RMK A01 T10101021  RH  093%=      5-min Rain = 0
KWA1 100852Z 25005KT M01/M02 A3039 RMK A01 T10101021  RH  093%=      5-min Rain = 0
KWA1 100853Z 25005KT M01/M02 A3039 RMK A01 T10101021  RH  093%=      5-min Rain = 0
KWA1 100854Z 25005KT M01/M02 A3039 RMK A01 T10101021  RH  093%=      5-min Rain = 0
KWA1 100855Z 25006KT M01/M02 A3039 RMK A01 T10101021  RH  093%=      5-min Rain = 0
KWA1 100856Z 25006KT M01/M02 A3039 RMK A01 T10111021  RH  093%=      5-min Rain = 0
KWA1 100857Z 24006KT M01/M02 A3039 RMK A01 T10101021  RH  092%=      5-min Rain = 0
KWA1 100858Z 24006KT M01/M02 A3039 RMK A01 T10101021  RH  092%=      5-min Rain = 0
KWA1 100859Z 24007KT M01/M02 A3039 RMK A01 T10101021  RH  092%=      5-min Rain = 0
KWA1 100900Z 24007KT M01/M02 A3039 RMK A01 T10101021  RH  092%=      5-min Rain = 0
KWA1 100901Z 24007KT M01/M02 A3039 RMK A01 T10101021  RH  092%=      5-min Rain = 0
KWA1 100902Z 24007KT M01/M02 A3039 RMK A01 T10101021  RH  092%=      5-min Rain = 0
KWA1 100903Z 24007KT M01/M02 A3039 RMK A01 T10091021  RH  092%=      5-min Rain = 0
KWA1 100904Z 24007KT M01/M02 A3039 RMK A01 T10091021  RH  092%=      5-min Rain = 0
KWA1 100905Z 24007KT M01/M02 A3039 RMK A01 T10091021  RH  092%=      5-min Rain = 0
KWA1 100906Z 24007KT M01/M02 A3039 RMK A01 T10091021  RH  092%=      5-min Rain = 0
KWA1 100907Z 24007KT M01/M02 A3039 RMK A01 T10091021  RH  092%=      5-min Rain = 0
KWA1 100908Z 24007KT M01/M02 A3039 RMK A01 T10091021  RH  092%=      5-min Rain = 0
KWA1 100909Z 24007KT M01/M02 A3039 RMK A01 T10091021  RH  092%=      5-min Rain = 0
KWA1 100910Z 24006KT M01/M02 A3039 RMK A01 T10091021  RH  091%=      5-min Rain = 0
KWA1 100911Z 24006KT M01/M02 A3039 RMK A01 T10081021  RH  091%=      5-min Rain = 0
KWA1 100912Z 24006KT M01/M02 A3039 RMK A01 T10091021  RH  091%=      5-min Rain = 0
KWA1 100913Z 24006KT M01/M02 A3039 RMK A01 T10091021  RH  091%=      5-min Rain = 0
KWA1 100914Z 24006KT M01/M02 A3039 RMK A01 T10081021  RH  091%=      5-min Rain = 0
KWA1 100915Z 24006KT M01/M02 A3039 RMK A01 T10091022  RH  091%=      5-min Rain = 0
KWA1 100916Z 25006KT M01/M02 A3039 RMK A01 T10091022  RH  091%=      5-min Rain = 0
KWA1 100917Z 25006KT M01/M02 A3039 RMK A01 T10091022  RH  091%=      5-min Rain = 0
KWA1 100918Z 25006KT M01/M02 A3039 RMK A01 T10091022  RH  090%=      5-min Rain = 0
KWA1 100919Z 25006KT M01/M02 A3039 RMK A01 T10091023  RH  090%=      5-min Rain = 0
KWA1 100920Z 25006KT M01/M02 A3039 RMK A01 T10091023  RH  090%=      5-min Rain = 0
KWA1 100921Z 24006KT M01/M02 A3039 RMK A01 T10091023  RH  090%=      5-min Rain = 0
KWA1 100922Z 25007KT M01/M02 A3039 RMK A01 T10091023  RH  090%=      5-min Rain = 0
KWA1 100923Z 25006KT M01/M02 A3039 RMK A01 T10091023  RH  090%=      5-min Rain = 0
KWA1 100924Z 25006KT M01/M02 A3039 RMK A01 T10091023  RH  091%=      5-min Rain = 0
KWA1 100925Z 25006KT M01/M02 A3039 RMK A01 T10101023  RH  091%=      5-min Rain = 0
KWA1 100926Z 25006KT M01/M02 A3039 RMK A01 T10101023  RH  091%=      5-min Rain = 0
KWA1 100927Z 25006KT M01/M02 A3039 RMK A01 T10101023  RH  091%=      5-min Rain = 0
KWA1 100928Z 25006KT M01/M02 A3039 RMK A01 T10101022  RH  092%=      5-min Rain = 0
KWA1 100929Z 25006KT M01/M02 A3039 RMK A01 T10111022  RH  092%=      5-min Rain = 0
KWA1 100930Z 25006KT M01/M02 A3039 RMK A01 T10111023  RH  092%=      5-min Rain = 0
KWA1 100931Z 25006KT M01/M02 A3039 RMK A01 T10111023  RH  092%=      5-min Rain = 0
KWA1 100932Z 25007KT M01/M02 A3039 RMK A01 T10111023  RH  092%=      5-min Rain = 0
KWA1 100933Z 25006KT M01/M02 A3039 RMK A01 T10101022  RH  092%=      5-min Rain = 0
KWA1 100934Z 25007KT M01/M02 A3039 RMK A01 T10111023  RH  091%=      5-min Rain = 0
KWA1 100935Z 25007KT M01/M02 A3039 RMK A01 T10101023  RH  091%=      5-min Rain = 0
KWA1 100936Z 25007KT M01/M02 A3039 RMK A01 T10101023  RH  091%=      5-min Rain = 0
KWA1 100937Z 25007KT M01/M02 A3039 RMK A01 T10101023  RH  091%=      5-min Rain = 0
KWA1 100938Z 25008KT M01/M02 A3039 RMK A01 T10091023  RH  091%=      5-min Rain = 0
KWA1 100939Z 25007KT M01/M02 A3039 RMK A01 T10091023  RH  091%=      5-min Rain = 0
KWA1 100940Z 25007KT M01/M02 A3039 RMK A01 T10091023  RH  091%=      5-min Rain = 0
KWA1 100941Z 25007KT M01/M02 A3039 RMK A01 T10101023  RH  090%=      5-min Rain = 0
KWA1 100942Z 25007KT M01/M02 A3039 RMK A01 T10091023  RH  091%=      5-min Rain = 0
KWA1 100943Z 25007KT M01/M02 A3039 RMK A01 T10101023  RH  091%=      5-min Rain = 0
KWA1 100944Z 25007KT M01/M02 A3039 RMK A01 T10101023  RH  091%=      5-min Rain = 0
KWA1 100945Z 25007KT M01/M02 A3039 RMK A01 T10101023  RH  091%=      5-min Rain = 0
KWA1 100946Z 25007KT M01/M02 A3039 RMK A01 T10101023  RH  091%=      5-min Rain = 0
KWA1 100947Z 25007KT M01/M02 A3039 RMK A01 T10091023  RH  091%=      5-min Rain = 0
KWA1 100948Z 25007KT M01/M02 A3039 RMK A01 T10091022  RH  091%=      5-min Rain = 0
KWA1 100949Z 25007KT M01/M02 A3039 RMK A01 T10091023  RH  091%=      5-min Rain = 0
KWA1 100950Z 24007KT M01/M02 A3039 RMK A01 T10091023  RH  091%=      5-min Rain = 0
KWA1 100951Z 24007KT M01/M02 A3039 RMK A01 T10091023  RH  091%=      5-min Rain = 0
KWA1 100952Z 24007KT M01/M02 A3039 RMK A01 T10101023  RH  091%=      5-min Rain = 0
KWA1 100953Z 24008KT M01/M02 A3039 RMK A01 T10091023  RH  091%=      5-min Rain = 0
KWA1 100954Z 24008KT M01/M02 A3039 RMK A01 T10091023  RH  091%=      5-min Rain = 0
KWA1 100955Z 24008KT M01/M02 A3039 RMK A01 T10101023  RH  091%=      5-min Rain = 0
KWA1 100956Z 25008KT M01/M02 A3038 RMK A01 T10101023  RH  091%=      5-min Rain = 0
KWA1 100957Z 25008KT M01/M02 A3038 RMK A01 T10091023  RH  091%=      5-min Rain = 0
KWA1 100958Z 25008KT M01/M02 A3038 RMK A01 T10091022  RH  091%=      5-min Rain = 0
KWA1 100959Z 25008KT M01/M02 A3038 RMK A01 T10091022  RH  091%=      5-min Rain = 0
KWA1 101000Z 25007KT M01/M02 A3038 RMK A01 T10091022  RH  091%=      5-min Rain = 0
KWA1 101001Z 25008KT M01/M02 A3038 RMK A01 T10091022  RH  091%=      5-min Rain = 0
KWA1 101002Z 25008KT M01/M02 A3038 RMK A01 T10081021  RH  091%=      5-min Rain = 0
KWA1 101003Z 25008KT M01/M02 A3038 RMK A01 T10081021  RH  091%=      5-min Rain = 0
KWA1 101004Z 25008KT M01/M02 A3038 RMK A01 T10081021  RH  091%=      5-min Rain = 0
KWA1 101005Z 25008KT M01/M02 A3038 RMK A01 T10081021  RH  090%=      5-min Rain = 0
KWA1 101006Z 25008KT M01/M02 A3038 RMK A01 T10071021  RH  090%=      5-min Rain = 0
KWA1 101007Z 25008KT M01/M02 A3039 RMK A01 T10071021  RH  090%=      5-min Rain = 0
KWA1 101008Z 25008KT M01/M02 A3039 RMK A01 T10071021  RH  090%=      5-min Rain = 0
KWA1 101009Z 25008KT M01/M02 A3039 RMK A01 T10071022  RH  090%=      5-min Rain = 0
KWA1 101010Z 25008KT M01/M02 A3038 RMK A01 T10071022  RH  090%=      5-min Rain = 0
KWA1 101011Z 25007KT M01/M02 A3038 RMK A01 T10071022  RH  090%=      5-min Rain = 0
KWA1 101012Z 26007KT M01/M02 A3038 RMK A01 T10071022  RH  090%=      5-min Rain = 0
KWA1 101013Z 26007KT M01/M02 A3038 RMK A01 T10071022  RH  090%=      5-min Rain = 0
KWA1 101014Z 25008KT M01/M02 A3038 RMK A01 T10071022  RH  090%=      5-min Rain = 0
KWA1 101015Z 25007KT M01/M02 A3038 RMK A01 T10081022  RH  090%=      5-min Rain = 0
KWA1 101016Z 25007KT M01/M02 A3038 RMK A01 T10081022  RH  090%=      5-min Rain = 0
KWA1 101017Z 25007KT M01/M02 A3038 RMK A01 T10081023  RH  090%=      5-min Rain = 0
KWA1 101018Z 25007KT M01/M02 A3038 RMK A01 T10091023  RH  090%=      5-min Rain = 0
KWA1 101019Z 25007KT M01/M02 A3038 RMK A01 T10081022  RH  090%=      5-min Rain = 0
KWA1 101020Z 25007KT M01/M02 A3038 RMK A01 T10091023  RH  090%=      5-min Rain = 0
KWA1 101021Z 25007KT M01/M02 A3038 RMK A01 T10091023  RH  090%=      5-min Rain = 0
KWA1 101022Z 25007KT M01/M02 A3038 RMK A01 T10091023  RH  090%=      5-min Rain = 0
KWA1 101023Z 25008KT M01/M02 A3038 RMK A01 T10091023  RH  090%=      5-min Rain = 0
KWA1 101024Z 25007KT M01/M02 A3038 RMK A01 T10091023  RH  091%=      5-min Rain = 0
KWA1 101025Z 25007KT M01/M02 A3038 RMK A01 T10091023  RH  091%=      5-min Rain = 0
KWA1 101026Z 25007KT M01/M02 A3038 RMK A01 T10091023  RH  090%=      5-min Rain = 0
KWA1 101027Z 25007KT M01/M02 A3038 RMK A01 T10091022  RH  090%=      5-min Rain = 0
KWA1 101028Z 25007KT M01/M02 A3038 RMK A01 T10091023  RH  091%=      5-min Rain = 0
KWA1 101029Z 25007KT M01/M02 A3038 RMK A01 T10091022  RH  091%=      5-min Rain = 0
KWA1 101030Z 25007KT M01/M02 A3038 RMK A01 T10091023  RH  091%=      5-min Rain = 0
KWA1 101031Z 25006KT M01/M02 A3038 RMK A01 T10091022  RH  091%=      5-min Rain = 0
KWA1 101032Z 25007KT M01/M02 A3038 RMK A01 T10091022  RH  091%=      5-min Rain = 0
KWA1 101033Z 25008KT M01/M02 A3038 RMK A01 T10091022  RH  091%=      5-min Rain = 0
KWA1 101034Z 25008KT M01/M02 A3038 RMK A01 T10091022  RH  091%=      5-min Rain = 0
KWA1 101035Z 25007KT M01/M02 A3038 RMK A01 T10091022  RH  091%=      5-min Rain = 0
KWA1 101036Z 25007KT M01/M02 A3038 RMK A01 T10091022  RH  091%=      5-min Rain = 0
KWA1 101037Z 25007KT M01/M02 A3038 RMK A01 T10091022  RH  091%=      5-min Rain = 0
KWA1 101038Z 25007KT M01/M02 A3038 RMK A01 T10091022  RH  091%=      5-min Rain = 0
KWA1 101039Z 25007KT M01/M02 A3038 RMK A01 T10091022  RH  091%=      5-min Rain = 0
KWA1 101040Z 25008KT M01/M02 A3037 RMK A01 T10091022  RH  091%=      5-min Rain = 0
KWA1 101041Z 25007KT M01/M02 A3037 RMK A01 T10091022  RH  091%=      5-min Rain = 0
KWA1 101042Z 26007KT M01/M02 A3037 RMK A01 T10091022  RH  091%=      5-min Rain = 0
KWA1 101043Z 25007KT M01/M02 A3037 RMK A01 T10101023  RH  091%=      5-min Rain = 0
KWA1 101044Z 26007KT M01/M02 A3037 RMK A01 T10101023  RH  091%=      5-min Rain = 0
KWA1 101045Z 26007KT M01/M02 A3037 RMK A01 T10091023  RH  091%=      5-min Rain = 0
KWA1 101046Z 26006KT M01/M02 A3037 RMK A01 T10101023  RH  091%=      5-min Rain = 0
KWA1 101047Z 26006KT M01/M02 A3037 RMK A01 T10101023  RH  091%=      5-min Rain = 0
KWA1 101048Z 26006KT M01/M02 A3037 RMK A01 T10111024  RH  091%=      5-min Rain = 0
KWA1 101049Z 26006KT M01/M02 A3037 RMK A01 T10121024  RH  091%=      5-min Rain = 0
KWA1 101050Z 26006KT M01/M02 A3037 RMK A01 T10121024  RH  092%=      5-min Rain = 0
KWA1 101051Z 26006KT M01/M02 A3037 RMK A01 T10121024  RH  092%=      5-min Rain = 0
KWA1 101052Z 26006KT M01/M02 A3037 RMK A01 T10121024  RH  092%=      5-min Rain = 0
KWA1 101053Z 26006KT M01/M02 A3037 RMK A01 T10131024  RH  092%=      5-min Rain = 0
KWA1 101054Z 26006KT M01/M02 A3037 RMK A01 T10131024  RH  093%=      5-min Rain = 0
KWA1 101055Z 26006KT M01/M02 A3037 RMK A01 T10131024  RH  093%=      5-min Rain = 0
KWA1 101056Z 26006KT M01/M02 A3037 RMK A01 T10141024  RH  093%=      5-min Rain = 0
KWA1 101057Z 26005KT M01/M02 A3037 RMK A01 T10141024  RH  093%=      5-min Rain = 0
KWA1 101058Z 26006KT M01/M02 A3037 RMK A01 T10141024  RH  093%=      5-min Rain = 0
KWA1 101059Z 26005KT M02/M02 A3037 RMK A01 T10151024  RH  093%=      5-min Rain = 0
KWA1 101100Z 26006KT M02/M02 A3037 RMK A01 T10151024  RH  094%=      5-min Rain = 0
KWA1 101101Z 26006KT M02/M02 A3037 RMK A01 T10151024  RH  094%=      5-min Rain = 0
KWA1 101102Z 26006KT M02/M02 A3037 RMK A01 T10151024  RH  094%=      5-min Rain = 0
KWA1 101103Z 26006KT M02/M02 A3038 RMK A01 T10151024  RH  094%=      5-min Rain = 0
KWA1 101104Z 26006KT M02/M02 A3038 RMK A01 T10151024  RH  094%=      5-min Rain = 0
KWA1 101105Z 26006KT M02/M02 A3038 RMK A01 T10151024  RH  094%=      5-min Rain = 0
KWA1 101106Z 26006KT M02/M02 A3038 RMK A01 T10151024  RH  094%=      5-min Rain = 0
KWA1 101107Z 26006KT M02/M02 A3038 RMK A01 T10151024  RH  094%=      5-min Rain = 0
KWA1 101108Z 26006KT M02/M02 A3038 RMK A01 T10151024  RH  094%=      5-min Rain = 0
KWA1 101109Z 26006KT M02/M02 A3038 RMK A01 T10151024  RH  094%=      5-min Rain = 0
KWA1 101110Z 26006KT M02/M02 A3038 RMK A01 T10151024  RH  094%=      5-min Rain = 0
KWA1 101111Z 26005KT M02/M02 A3038 RMK A01 T10151024  RH  094%=      5-min Rain = 0
KWA1 101112Z 26005KT M02/M02 A3038 RMK A01 T10151024  RH  094%=      5-min Rain = 0
KWA1 101113Z 26006KT M02/M02 A3038 RMK A01 T10151024  RH  094%=      5-min Rain = 0
KWA1 101114Z 25006KT M02/M02 A3038 RMK A01 T10151024  RH  094%=      5-min Rain = 0
KWA1 101115Z 25006KT M02/M02 A3038 RMK A01 T10161024  RH  094%=      5-min Rain = 0
KWA1 101116Z 25006KT M02/M02 A3038 RMK A01 T10161024  RH  094%=      5-min Rain = 0
KWA1 101117Z 25006KT M02/M02 A3038 RMK A01 T10151024  RH  094%=      5-min Rain = 0
KWA1 101118Z 25006KT M02/M02 A3038 RMK A01 T10151024  RH  094%=      5-min Rain = 0
KWA1 101119Z 25007KT M02/M03 A3038 RMK A01 T10151025  RH  093%=      5-min Rain = 0
KWA1 101120Z 25007KT M02/M03 A3038 RMK A01 T10161025  RH  093%=      5-min Rain = 0
KWA1 101121Z 25006KT M02/M03 A3038 RMK A01 T10151025  RH  093%=      5-min Rain = 0
KWA1 101122Z 25007KT M02/M02 A3038 RMK A01 T10151024  RH  093%=      5-min Rain = 0
KWA1 101123Z 26007KT M02/M03 A3038 RMK A01 T10151025  RH  093%=      5-min Rain = 0
KWA1 101124Z 26007KT M02/M03 A3038 RMK A01 T10151025  RH  093%=      5-min Rain = 0
KWA1 101125Z 26007KT M02/M03 A3038 RMK A01 T10151026  RH  092%=      5-min Rain = 0
KWA1 101126Z 25006KT M02/M03 A3038 RMK A01 T10151026  RH  092%=      5-min Rain = 0
KWA1 101127Z 25006KT M01/M03 A3038 RMK A01 T10141026  RH  092%=      5-min Rain = 0
KWA1 101128Z 25006KT M01/M03 A3038 RMK A01 T10141025  RH  092%=      5-min Rain = 0
KWA1 101129Z 26007KT M01/M03 A3038 RMK A01 T10141025  RH  092%=      5-min Rain = 0
KWA1 101130Z 26007KT M01/M03 A3038 RMK A01 T10141025  RH  092%=      5-min Rain = 0
KWA1 101131Z 25007KT M01/M03 A3038 RMK A01 T10141025  RH  093%=      5-min Rain = 0
KWA1 101132Z 25007KT M01/M03 A3038 RMK A01 T10141025  RH  093%=      5-min Rain = 0
KWA1 101133Z 25007KT M02/M03 A3038 RMK A01 T10151025  RH  093%=      5-min Rain = 0
KWA1 101134Z 25007KT M02/M03 A3038 RMK A01 T10151026  RH  093%=      5-min Rain = 0
KWA1 101135Z 25006KT M02/M03 A3038 RMK A01 T10151026  RH  093%=      5-min Rain = 0
KWA1 101136Z 26006KT M02/M03 A3038 RMK A01 T10151025  RH  093%=      5-min Rain = 0
KWA1 101137Z 25006KT M02/M03 A3038 RMK A01 T10161026  RH  093%=      5-min Rain = 0
KWA1 101138Z 25006KT M02/M03 A3038 RMK A01 T10161026  RH  093%=      5-min Rain = 0
KWA1 101139Z 25006KT M02/M03 A3038 RMK A01 T10161026  RH  093%=      5-min Rain = 0
KWA1 101140Z 25006KT M02/M03 A3038 RMK A01 T10161026  RH  093%=      5-min Rain = 0
KWA1 101141Z 25006KT M02/M03 A3038 RMK A01 T10161026  RH  093%=      5-min Rain = 0
KWA1 101142Z 25006KT M02/M03 A3038 RMK A01 T10161026  RH  093%=      5-min Rain = 0
KWA1 101143Z 25006KT M02/M03 A3038 RMK A01 T10161026  RH  093%=      5-min Rain = 0
KWA1 101144Z 25007KT M02/M03 A3038 RMK A01 T10161027  RH  093%=      5-min Rain = 0
KWA1 101145Z 25007KT M02/M03 A3039 RMK A01 T10161027  RH  092%=      5-min Rain = 0
KWA1 101146Z 25007KT M02/M03 A3039 RMK A01 T10161027  RH  092%=      5-min Rain = 0
KWA1 101147Z 25006KT M02/M03 A3039 RMK A01 T10161028  RH  092%=      5-min Rain = 0
KWA1 101148Z 26007KT M02/M03 A3039 RMK A01 T10151028  RH  091%=      5-min Rain = 0
KWA1 101149Z 25007KT M02/M03 A3039 RMK A01 T10151028  RH  091%=      5-min Rain = 0
KWA1 101150Z 25006KT M02/M03 A3039 RMK A01 T10151028  RH  091%=      5-min Rain = 0
KWA1 101151Z 25006KT M02/M03 A3039 RMK A01 T10151028  RH  091%=      5-min Rain = 0
KWA1 101152Z 26006KT M02/M03 A3039 RMK A01 T10151028  RH  091%=      5-min Rain = 0
KWA1 101153Z 26006KT M02/M03 A3039 RMK A01 T10151028  RH  091%=      5-min Rain = 0
KWA1 101154Z 26006KT M02/M03 A3039 RMK A01 T10151028  RH  091%=      5-min Rain = 0
KWA1 101155Z 25006KT M02/M03 A3039 RMK A01 T10151028  RH  091%=      5-min Rain = 0
KWA1 101156Z 26007KT M02/M03 A3039 RMK A01 T10151028  RH  091%=      5-min Rain = 0
KWA1 101157Z 26006KT M02/M03 A3039 RMK A01 T10151028  RH  091%=      5-min Rain = 0
KWA1 101158Z 26006KT M02/M03 A3039 RMK A01 T10151028  RH  091%=      5-min Rain = 0
KWA1 101159Z 26006KT M02/M03 A3039 RMK A01 T10151028  RH  091%=      5-min Rain = 0
KWA1 101200Z 26006KT M02/M03 A3039 RMK A01 T10151028  RH  091%=      5-min Rain = 0
KWA1 101201Z 26006KT M02/M03 A3039 RMK A01 T10161028  RH  091%=      5-min Rain = 0
KWA1 101202Z 26006KT M02/M03 A3039 RMK A01 T10161029  RH  091%=      5-min Rain = 0
KWA1 101203Z 26006KT M02/M03 A3039 RMK A01 T10161029  RH  091%=      5-min Rain = 0
KWA1 101204Z 26007KT M02/M03 A3039 RMK A01 T10161029  RH  091%=      5-min Rain = 0
KWA1 101205Z 26007KT M02/M03 A3039 RMK A01 T10161029  RH  091%=      5-min Rain = 0
KWA1 101206Z 26007KT M02/M03 A3039 RMK A01 T10161029  RH  091%=      5-min Rain = 0
KWA1 101207Z 26006KT M02/M03 A3039 RMK A01 T10161029  RH  091%=      5-min Rain = 0
KWA1 101208Z 26006KT M02/M03 A3039 RMK A01 T10161029  RH  091%=      5-min Rain = 0
KWA1 101209Z 26006KT M02/M03 A3039 RMK A01 T10161029  RH  091%=      5-min Rain = 0
KWA1 101210Z 26006KT M02/M03 A3039 RMK A01 T10171029  RH  091%=      5-min Rain = 0
KWA1 101211Z 26006KT M02/M03 A3039 RMK A01 T10171030  RH  091%=      5-min Rain = 0
KWA1 101212Z 26006KT M02/M03 A3039 RMK A01 T10171029  RH  091%=      5-min Rain = 0
KWA1 101213Z 26006KT M02/M03 A3039 RMK A01 T10171029  RH  091%=      5-min Rain = 0
KWA1 101214Z 26006KT M02/M03 A3039 RMK A01 T10171029  RH  091%=      5-min Rain = 0
KWA1 101215Z 26006KT M02/M03 A3039 RMK A01 T10181030  RH  092%=      5-min Rain = 0
KWA1 101216Z 26006KT M02/M03 A3039 RMK A01 T10181030  RH  092%=      5-min Rain = 0
KWA1 101217Z 26006KT M02/M03 A3039 RMK A01 T10181030  RH  092%=      5-min Rain = 0
KWA1 101218Z 26006KT M02/M03 A3039 RMK A01 T10181030  RH  092%=      5-min Rain = 0
KWA1 101219Z 26006KT M02/M03 A3039 RMK A01 T10181030  RH  092%=      5-min Rain = 0
KWA1 101220Z 26006KT M02/M03 A3039 RMK A01 T10181030  RH  092%=      5-min Rain = 0
KWA1 101221Z 26006KT M02/M03 A3039 RMK A01 T10181030  RH  092%=      5-min Rain = 0
KWA1 101222Z 26006KT M02/M03 A3039 RMK A01 T10181030  RH  091%=      5-min Rain = 0
KWA1 101223Z 26006KT M02/M03 A3039 RMK A01 T10181030  RH  091%=      5-min Rain = 0
KWA1 101224Z 26006KT M02/M03 A3039 RMK A01 T10191031  RH  091%=      5-min Rain = 0
KWA1 101225Z 26006KT M02/M03 A3039 RMK A01 T10191031  RH  091%=      5-min Rain = 0
KWA1 101226Z 26006KT M02/M03 A3039 RMK A01 T10191031  RH  091%=      5-min Rain = 0
KWA1 101227Z 26006KT M02/M03 A3039 RMK A01 T10191031  RH  091%=      5-min Rain = 0
KWA1 101228Z 26007KT M02/M03 A3039 RMK A01 T10191031  RH  091%=      5-min Rain = 0
KWA1 101229Z 26006KT M02/M03 A3039 RMK A01 T10191032  RH  091%=      5-min Rain = 0
KWA1 101230Z 26006KT M02/M03 A304 RMK A01 T10191032  RH  091%=      5-min Rain = 0
KWA1 101231Z 26006KT M02/M03 A304 RMK A01 T10191032  RH  090%=      5-min Rain = 0
KWA1 101232Z 26006KT M02/M03 A304 RMK A01 T10181032  RH  090%=      5-min Rain = 0
KWA1 101233Z 26007KT M02/M03 A304 RMK A01 T10181032  RH  090%=      5-min Rain = 0
KWA1 101234Z 26007KT M02/M03 A304 RMK A01 T10191033  RH  090%=      5-min Rain = 0
KWA1 101235Z 25007KT M02/M03 A304 RMK A01 T10191033  RH  090%=      5-min Rain = 0
KWA1 101236Z 25006KT M02/M03 A304 RMK A01 T10181033  RH  090%=      5-min Rain = 0
KWA1 101237Z 25006KT M02/M03 A304 RMK A01 T10181033  RH  090%=      5-min Rain = 0
KWA1 101238Z 25006KT M02/M03 A304 RMK A01 T10181033  RH  090%=      5-min Rain = 0
KWA1 101239Z 25006KT M02/M03 A304 RMK A01 T10181033  RH  090%=      5-min Rain = 0
KWA1 101240Z 25006KT M02/M03 A304 RMK A01 T10181033  RH  089%=      5-min Rain = 0
KWA1 101241Z 25006KT M02/M03 A304 RMK A01 T10181034  RH  089%=      5-min Rain = 0
KWA1 101242Z 25006KT M02/M03 A304 RMK A01 T10191034  RH  089%=      5-min Rain = 0
KWA1 101243Z 25007KT M02/M03 A304 RMK A01 T10191034  RH  089%=      5-min Rain = 0
KWA1 101244Z 25006KT M02/M03 A304 RMK A01 T10181033  RH  090%=      5-min Rain = 0
KWA1 101245Z 25006KT M02/M03 A304 RMK A01 T10191034  RH  089%=      5-min Rain = 0
KWA1 101246Z 25007KT M02/M03 A304 RMK A01 T10181034  RH  089%=      5-min Rain = 0
KWA1 101247Z 25007KT M02/M03 A304 RMK A01 T10181034  RH  089%=      5-min Rain = 0
KWA1 101248Z 25007KT M02/M03 A304 RMK A01 T10181034  RH  089%=      5-min Rain = 0
KWA1 101249Z 24007KT M02/M03 A304 RMK A01 T10181034  RH  089%=      5-min Rain = 0
KWA1 101250Z 25007KT M02/M03 A304 RMK A01 T10181034  RH  089%=      5-min Rain = 0
KWA1 101251Z 24007KT M02/M03 A304 RMK A01 T10181034  RH  089%=      5-min Rain = 0
KWA1 101252Z 24007KT M02/M03 A304 RMK A01 T10181034  RH  089%=      5-min Rain = 0
KWA1 101253Z 24007KT M02/M04 A304 RMK A01 T10181035  RH  088%=      5-min Rain = 0
KWA1 101254Z 25007KT M02/M04 A304 RMK A01 T10181035  RH  088%=      5-min Rain = 0
KWA1 101255Z 24008KT M02/M04 A304 RMK A01 T10181035  RH  088%=      5-min Rain = 0
KWA1 101256Z 24008KT M02/M04 A304 RMK A01 T10181035  RH  088%=      5-min Rain = 0
KWA1 101257Z 24008KT M02/M04 A304 RMK A01 T10181036  RH  088%=      5-min Rain = 0
KWA1 101258Z 24008KT M02/M04 A304 RMK A01 T10181035  RH  088%=      5-min Rain = 0
KWA1 101259Z 24008KT M02/M04 A304 RMK A01 T10181035  RH  088%=      5-min Rain = 0
KWA1 101300Z 24008KT M02/M04 A304 RMK A01 T10171035  RH  088%=      5-min Rain = 0
KWA1 101301Z 25008KT M02/M04 A304 RMK A01 T10171035  RH  087%=      5-min Rain = 0
KWA1 101302Z 25008KT M02/M04 A304 RMK A01 T10171035  RH  088%=      5-min Rain = 0
KWA1 101303Z 25008KT M02/M04 A304 RMK A01 T10171035  RH  088%=      5-min Rain = 0
KWA1 101304Z 25008KT M02/M04 A304 RMK A01 T10171035  RH  088%=      5-min Rain = 0
KWA1 101305Z 25008KT M02/M03 A304 RMK A01 T10161034  RH  088%=      5-min Rain = 0
KWA1 101306Z 25007KT M02/M03 A304 RMK A01 T10161034  RH  088%=      5-min Rain = 0
KWA1 101307Z 25008KT M02/M03 A3041 RMK A01 T10161034  RH  088%=      5-min Rain = 0
KWA1 101308Z 25008KT M02/M03 A3041 RMK A01 T10161034  RH  088%=      5-min Rain = 0
KWA1 101309Z 25007KT M02/M03 A3041 RMK A01 T10161034  RH  088%=      5-min Rain = 0
KWA1 101310Z 25007KT M02/M03 A3041 RMK A01 T10161034  RH  087%=      5-min Rain = 0
KWA1 101311Z 25007KT M02/M03 A3041 RMK A01 T10161034  RH  087%=      5-min Rain = 0
KWA1 101312Z 25007KT M02/M03 A3041 RMK A01 T10161033  RH  088%=      5-min Rain = 0
KWA1 101313Z 25007KT M02/M03 A3041 RMK A01 T10161034  RH  088%=      5-min Rain = 0
KWA1 101314Z 25007KT M02/M03 A3041 RMK A01 T10161033  RH  088%=      5-min Rain = 0
KWA1 101315Z 25007KT M02/M03 A3041 RMK A01 T10161033  RH  088%=      5-min Rain = 0
KWA1 101316Z 25007KT M02/M03 A3041 RMK A01 T10161034  RH  088%=      5-min Rain = 0
KWA1 101317Z 25007KT M02/M03 A3041 RMK A01 T10161034  RH  088%=      5-min Rain = 0
KWA1 101318Z 25008KT M02/M03 A3041 RMK A01 T10161034  RH  088%=      5-min Rain = 0
KWA1 101319Z 25008KT M02/M03 A3041 RMK A01 T10161034  RH  088%=      5-min Rain = 0
KWA1 101320Z 25007KT M02/M03 A3041 RMK A01 T10161034  RH  088%=      5-min Rain = 0
KWA1 101321Z 25007KT M02/M03 A3041 RMK A01 T10151034  RH  088%=      5-min Rain = 0
KWA1 101322Z 25007KT M02/M03 A3041 RMK A01 T10151034  RH  087%=      5-min Rain = 0
KWA1 101323Z 25007KT M02/M03 A3041 RMK A01 T10151033  RH  087%=      5-min Rain = 0
KWA1 101324Z 25007KT M02/M03 A3041 RMK A01 T10151033  RH  087%=      5-min Rain = 0
KWA1 101325Z 25007KT M02/M03 A3041 RMK A01 T10151033  RH  087%=      5-min Rain = 0
KWA1 101326Z 25007KT M02/M03 A3041 RMK A01 T10151033  RH  087%=      5-min Rain = 0
KWA1 101327Z 25007KT M02/M03 A3041 RMK A01 T10151033  RH  088%=      5-min Rain = 0
KWA1 101328Z 25007KT M02/M03 A3041 RMK A01 T10151033  RH  088%=      5-min Rain = 0
KWA1 101329Z 25007KT M02/M03 A3041 RMK A01 T10151033  RH  088%=      5-min Rain = 0
KWA1 101330Z 25007KT M02/M03 A3041 RMK A01 T10151033  RH  088%=      5-min Rain = 0
KWA1 101331Z 25007KT M02/M03 A3041 RMK A01 T10151033  RH  088%=      5-min Rain = 0
KWA1 101332Z 25007KT M02/M03 A3041 RMK A01 T10151033  RH  088%=      5-min Rain = 0
KWA1 101333Z 25007KT M02/M03 A3041 RMK A01 T10151033  RH  087%=      5-min Rain = 0
KWA1 101334Z 25007KT M02/M03 A3041 RMK A01 T10151034  RH  087%=      5-min Rain = 0
KWA1 101335Z 25007KT M01/M03 A3041 RMK A01 T10141034  RH  087%=      5-min Rain = 0
KWA1 101336Z 24007KT M01/M03 A3041 RMK A01 T10141034  RH  087%=      5-min Rain = 0
KWA1 101337Z 25008KT M01/M03 A3041 RMK A01 T10141034  RH  087%=      5-min Rain = 0
KWA1 101338Z 25008KT M01/M03 A3041 RMK A01 T10141034  RH  087%=      5-min Rain = 0
KWA1 101339Z 24008KT M01/M03 A3041 RMK A01 T10141033  RH  087%=      5-min Rain = 0
KWA1 101340Z 24008KT M01/M03 A3041 RMK A01 T10131033  RH  086%=      5-min Rain = 0
KWA1 101341Z 24008KT M01/M03 A3041 RMK A01 T10131034  RH  086%=      5-min Rain = 0
KWA1 101342Z 24007KT M01/M03 A3041 RMK A01 T10131033  RH  086%=      5-min Rain = 0
KWA1 101343Z 24007KT M01/M03 A3041 RMK A01 T10131033  RH  086%=      5-min Rain = 0
KWA1 101344Z 24007KT M01/M03 A3041 RMK A01 T10131033  RH  086%=      5-min Rain = 0
KWA1 101345Z 24006KT M01/M03 A3041 RMK A01 T10141033  RH  087%=      5-min Rain = 0
KWA1 101346Z 24007KT M01/M03 A3041 RMK A01 T10141033  RH  087%=      5-min Rain = 0
KWA1 101347Z 24007KT M01/M03 A3041 RMK A01 T10141033  RH  087%=      5-min Rain = 0
KWA1 101348Z 24007KT M01/M03 A3041 RMK A01 T10141033  RH  087%=      5-min Rain = 0
KWA1 101349Z 24007KT M01/M03 A3041 RMK A01 T10141033  RH  087%=      5-min Rain = 0
KWA1 101350Z 24007KT M01/M03 A3041 RMK A01 T10141033  RH  087%=      5-min Rain = 0
KWA1 101351Z 24007KT M01/M03 A3041 RMK A01 T10131032  RH  087%=      5-min Rain = 0
KWA1 101352Z 24007KT M01/M03 A3041 RMK A01 T10131033  RH  087%=      5-min Rain = 0
KWA1 101353Z 24007KT M01/M03 A3041 RMK A01 T10131033  RH  086%=      5-min Rain = 0
KWA1 101354Z 24007KT M01/M03 A3041 RMK A01 T10131033  RH  086%=      5-min Rain = 0
KWA1 101355Z 24007KT M01/M03 A3041 RMK A01 T10131033  RH  086%=      5-min Rain = 0
KWA1 101356Z 25006KT M01/M03 A3041 RMK A01 T10131033  RH  086%=      5-min Rain = 0
KWA1 101357Z 25007KT M01/M03 A3041 RMK A01 T10121032  RH  086%=      5-min Rain = 0
KWA1 101358Z 25007KT M01/M03 A3041 RMK A01 T10121032  RH  086%=      5-min Rain = 0
KWA1 101359Z 24006KT M01/M03 A3041 RMK A01 T10121032  RH  086%=      5-min Rain = 0
KWA1 101400Z 24007KT M01/M03 A3041 RMK A01 T10121033  RH  086%=      5-min Rain = 0
KWA1 101401Z 25007KT M01/M03 A3041 RMK A01 T10121032  RH  086%=      5-min Rain = 0
KWA1 101402Z 25007KT M01/M03 A3041 RMK A01 T10111033  RH  086%=      5-min Rain = 0
KWA1 101403Z 24007KT M01/M03 A3041 RMK A01 T10111032  RH  086%=      5-min Rain = 0
KWA1 101404Z 25007KT M01/M03 A3041 RMK A01 T10111032  RH  086%=      5-min Rain = 0
KWA1 101405Z 24006KT M01/M03 A3041 RMK A01 T10111032  RH  086%=      5-min Rain = 0
KWA1 101406Z 24007KT M01/M03 A3041 RMK A01 T10111031  RH  086%=      5-min Rain = 0
KWA1 101407Z 24007KT M01/M03 A3041 RMK A01 T10111032  RH  086%=      5-min Rain = 0
KWA1 101408Z 25007KT M01/M03 A3041 RMK A01 T10111032  RH  086%=      5-min Rain = 0
KWA1 101409Z 24006KT M01/M03 A3041 RMK A01 T10101031  RH  086%=      5-min Rain = 0
KWA1 101410Z 24006KT M01/M03 A3041 RMK A01 T10101031  RH  086%=      5-min Rain = 0
KWA1 101411Z 24007KT M01/M03 A3041 RMK A01 T10101031  RH  086%=      5-min Rain = 0
KWA1 101412Z 24006KT M01/M03 A3041 RMK A01 T10101031  RH  085%=      5-min Rain = 0
KWA1 101413Z 25006KT M01/M03 A3041 RMK A01 T10101032  RH  085%=      5-min Rain = 0
KWA1 101414Z 25006KT M01/M03 A3041 RMK A01 T10091031  RH  085%=      5-min Rain = 0
KWA1 101415Z 25005KT M01/M03 A3041 RMK A01 T10081030  RH  085%=      5-min Rain = 0
KWA1 101416Z 24005KT M01/M03 A3041 RMK A01 T10081030  RH  085%=      5-min Rain = 0
KWA1 101417Z 25005KT M01/M03 A3041 RMK A01 T10081030  RH  085%=      5-min Rain = 0
KWA1 101418Z 25005KT M01/M03 A3041 RMK A01 T10071030  RH  085%=      5-min Rain = 0
KWA1 101419Z 25005KT M01/M03 A3041 RMK A01 T10071030  RH  084%=      5-min Rain = 0
KWA1 101420Z 24005KT M01/M03 A3041 RMK A01 T10061029  RH  085%=      5-min Rain = 0
KWA1 101421Z 24006KT M01/M03 A3042 RMK A01 T10061029  RH  085%=      5-min Rain = 0
KWA1 101422Z 24005KT M01/M03 A3042 RMK A01 T10061030  RH  084%=      5-min Rain = 0
KWA1 101423Z 25005KT M01/M03 A3042 RMK A01 T10061029  RH  084%=      5-min Rain = 0
KWA1 101424Z 25005KT M01/M03 A3042 RMK A01 T10051029  RH  084%=      5-min Rain = 0
KWA1 101425Z 25005KT M01/M03 A3042 RMK A01 T10051029  RH  084%=      5-min Rain = 0
KWA1 101426Z 24005KT M00/M03 A3042 RMK A01 T10041028  RH  084%=      5-min Rain = 0
KWA1 101427Z 26005KT M00/M03 A3042 RMK A01 T10041028  RH  084%=      5-min Rain = 0
KWA1 101428Z 25004KT M00/M03 A3042 RMK A01 T10031027  RH  084%=      5-min Rain = 0
KWA1 101429Z 26003KT M00/M03 A3042 RMK A01 T10031026  RH  084%=      5-min Rain = 0
KWA1 101430Z 25005KT M00/M03 A3042 RMK A01 T10021025  RH  084%=      5-min Rain = 0
KWA1 101431Z 25005KT M00/M03 A3042 RMK A01 T10021027  RH  083%=      5-min Rain = 0
KWA1 101432Z 25005KT M00/M03 A3042 RMK A01 T10021027  RH  083%=      5-min Rain = 0
KWA1 101433Z 26005KT M00/M03 A3042 RMK A01 T10021027  RH  083%=      5-min Rain = 0
KWA1 101434Z 26005KT M00/M03 A3042 RMK A01 T10021028  RH  083%=      5-min Rain = 0
KWA1 101435Z 26005KT M00/M03 A3042 RMK A01 T10021027  RH  083%=      5-min Rain = 0
KWA1 101436Z 26005KT M00/M03 A3042 RMK A01 T10011027  RH  083%=      5-min Rain = 0
KWA1 101437Z 26006KT M00/M03 A3042 RMK A01 T10011027  RH  083%=      5-min Rain = 0
KWA1 101438Z 25004KT M00/M03 A3042 RMK A01 T10011027  RH  083%=      5-min Rain = 0
KWA1 101439Z 25005KT M00/M03 A3042 RMK A01 T10011026  RH  083%=      5-min Rain = 0
KWA1 101440Z 26005KT M00/M03 A3042 RMK A01 T10011026  RH  083%=      5-min Rain = 0
KWA1 101441Z 25006KT M00/M03 A3042 RMK A01 T10011026  RH  083%=      5-min Rain = 0
KWA1 101442Z 25006KT M00/M03 A3042 RMK A01 T10011027  RH  082%=      5-min Rain = 0
KWA1 101443Z 26006KT 00/03 A3042 RMK A01 T00-00-27  RH  082%=      5-min Rain = 0
KWA1 101444Z 26005KT 00/03 A3042 RMK A01 T00-00-27  RH  083%=      5-min Rain = 0
KWA1 101445Z 26005KT 00/02 A3042 RMK A01 T00000-24  RH  083%=      5-min Rain = 0
KWA1 101446Z 25005KT 00/M02 A3042 RMK A01 T00011024  RH  084%=      5-min Rain = 0
KWA1 101447Z 26005KT 00/M02 A3042 RMK A01 T00011023  RH  084%=      5-min Rain = 0
KWA1 101448Z 25006KT 00/M03 A3042 RMK A01 T00011025  RH  083%=      5-min Rain = 0
KWA1 101449Z 25006KT 00/M03 A3042 RMK A01 T00011025  RH  083%=      5-min Rain = 0
KWA1 101450Z 25005KT 00/M03 A3042 RMK A01 T00011025  RH  083%=      5-min Rain = 0
KWA1 101451Z 25005KT 00/M02 A3042 RMK A01 T00021023  RH  083%=      5-min Rain = 0
KWA1 101452Z 26005KT 00/M02 A3042 RMK A01 T00021023  RH  083%=      5-min Rain = 0
KWA1 101453Z 25006KT 00/M02 A3042 RMK A01 T00021023  RH  083%=      5-min Rain = 0
KWA1 101454Z 25005KT 00/M02 A3042 RMK A01 T00031024  RH  082%=      5-min Rain = 0
KWA1 101455Z 25005KT 00/M02 A3042 RMK A01 T00031022  RH  083%=      5-min Rain = 0
KWA1 101456Z 25006KT 00/M02 A3042 RMK A01 T00031021  RH  084%=      5-min Rain = 0
KWA1 101457Z 25006KT 00/M02 A3042 RMK A01 T00041022  RH  083%=      5-min Rain = 0
KWA1 101458Z 25006KT 00/M02 A3042 RMK A01 T00041023  RH  082%=      5-min Rain = 0
KWA1 101459Z 25006KT 00/M02 A3042 RMK A01 T00041024  RH  082%=      5-min Rain = 0
KWA1 101500Z 25007KT 00/M03 A3042 RMK A01 T00041025  RH  081%=      5-min Rain = 0
KWA1 101501Z 25007KT 00/M03 A3042 RMK A01 T00041025  RH  081%=      5-min Rain = 0
KWA1 101502Z 25007KT 00/M02 A3042 RMK A01 T00041024  RH  082%=      5-min Rain = 0
KWA1 101503Z 25007KT 00/M02 A3042 RMK A01 T00041024  RH  081%=      5-min Rain = 0
KWA1 101504Z 25008KT 01/M02 A3042 RMK A01 T00051024  RH  081%=      5-min Rain = 0
KWA1 101505Z 25007KT 01/M02 A3042 RMK A01 T00051023  RH  081%=      5-min Rain = 0
KWA1 101506Z 25006KT 01/M02 A3042 RMK A01 T00061022  RH  082%=      5-min Rain = 0
KWA1 101507Z 24006KT 01/M02 A3042 RMK A01 T00071020  RH  082%=      5-min Rain = 0
KWA1 101508Z 25007KT 01/M02 A3042 RMK A01 T00081019  RH  083%=      5-min Rain = 0
KWA1 101509Z 26006KT 01/M02 A3042 RMK A01 T00081019  RH  082%=      5-min Rain = 0
KWA1 101510Z 25006KT 01/M02 A3042 RMK A01 T00091019  RH  082%=      5-min Rain = 0
KWA1 101511Z 25006KT 01/M02 A3042 RMK A01 T00101017  RH  082%=      5-min Rain = 0
KWA1 101512Z 25006KT 01/M02 A3042 RMK A01 T00101018  RH  081%=      5-min Rain = 0
KWA1 101513Z 26005KT 01/M02 A3042 RMK A01 T00101018  RH  081%=      5-min Rain = 0
KWA1 101514Z 25007KT 01/M02 A3042 RMK A01 T00101019  RH  081%=      5-min Rain = 0
KWA1 101515Z 25006KT 01/M02 A3042 RMK A01 T00111020  RH  080%=      5-min Rain = 0
KWA1 101516Z 26005KT 01/M02 A3042 RMK A01 T00121016  RH  082%=      5-min Rain = 0
KWA1 101517Z 26005KT 01/M01 A3042 RMK A01 T00131014  RH  082%=      5-min Rain = 0
KWA1 101518Z 25006KT 01/M01 A3042 RMK A01 T00141014  RH  081%=      5-min Rain = 0
KWA1 101519Z 25006KT 01/M02 A3042 RMK A01 T00141017  RH  080%=      5-min Rain = 0
KWA1 101520Z 25007KT 01/M02 A3043 RMK A01 T00141017  RH  080%=      5-min Rain = 0
KWA1 101521Z 25006KT 01/M02 A3043 RMK A01 T00141020  RH  078%=      5-min Rain = 0.01
KWA1 101522Z 25006KT 02/M02 A3043 RMK A01 T00151018  RH  079%=      5-min Rain = 0
KWA1 101523Z 26006KT 02/M02 A3043 RMK A01 T00151017  RH  079%=      5-min Rain = 0
KWA1 101524Z 26007KT 02/M02 A3043 RMK A01 T00161018  RH  078%=      5-min Rain = 0
KWA1 101525Z 25006KT 02/M02 A3043 RMK A01 T00161019  RH  077%=      5-min Rain = 0
KWA1 101526Z 25007KT 02/M02 A3043 RMK A01 T00171017  RH  078%=      5-min Rain = 0
KWA1 101527Z 26006KT 02/M02 A3043 RMK A01 T00171018  RH  078%=      5-min Rain = 0
KWA1 101528Z 25007KT 02/M02 A3043 RMK A01 T00171019  RH  077%=      5-min Rain = 0
KWA1 101529Z 25007KT 02/M02 A3043 RMK A01 T00181019  RH  076%=      5-min Rain = 0
KWA1 101530Z 25008KT 02/M02 A3043 RMK A01 T00181018  RH  077%=      5-min Rain = 0
KWA1 101531Z 25006KT 02/M02 A3043 RMK A01 T00191019  RH  076%=      5-min Rain = 0
KWA1 101532Z 25006KT 02/M02 A3043 RMK A01 T00191016  RH  078%=      5-min Rain = 0
KWA1 101533Z 25007KT 02/M02 A3043 RMK A01 T00201015  RH  077%=      5-min Rain = 0
KWA1 101534Z 25006KT 02/M02 A3043 RMK A01 T00201016  RH  077%=      5-min Rain = 0
KWA1 101535Z 25006KT 02/M01 A3043 RMK A01 T00211014  RH  078%=      5-min Rain = 0
KWA1 101536Z 25007KT 02/M01 A3043 RMK A01 T00221014  RH  077%=      5-min Rain = 0
KWA1 101537Z 25007KT 02/M02 A3043 RMK A01 T00221015  RH  077%=      5-min Rain = 0
KWA1 101538Z 25006KT 02/M01 A3043 RMK A01 T00221014  RH  077%=      5-min Rain = 0
KWA1 101539Z 25007KT 02/M01 A3043 RMK A01 T00221012  RH  078%=      5-min Rain = 0
KWA1 101540Z 26007KT 02/M01 A3043 RMK A01 T00221013  RH  078%=      5-min Rain = 0
KWA1 101541Z 26007KT 02/M01 A3043 RMK A01 T00231012  RH  078%=      5-min Rain = 0
KWA1 101542Z 25007KT 02/M01 A3043 RMK A01 T00231013  RH  077%=      5-min Rain = 0
KWA1 101543Z 25007KT 02/M01 A3043 RMK A01 T00221013  RH  077%=      5-min Rain = 0
KWA1 101544Z 25007KT 02/M01 A3044 RMK A01 T00231012  RH  078%=      5-min Rain = 0
KWA1 101545Z 25008KT 02/M01 A3044 RMK A01 T00241011  RH  078%=      5-min Rain = 0
KWA1 101546Z 25007KT 02/M01 A3044 RMK A01 T00241012  RH  077%=      5-min Rain = 0
KWA1 101547Z 25007KT 02/M01 A3044 RMK A01 T00241010  RH  078%=      5-min Rain = 0
KWA1 101548Z 25006KT 03/M01 A3044 RMK A01 T00261009  RH  078%=      5-min Rain = 0
KWA1 101549Z 25006KT 03/M01 A3044 RMK A01 T00261010  RH  077%=      5-min Rain = 0
KWA1 101550Z 25007KT 03/M01 A3044 RMK A01 T00261009  RH  078%=      5-min Rain = 0
KWA1 101551Z 25006KT 03/M01 A3044 RMK A01 T00271008  RH  078%=      5-min Rain = 0
KWA1 101552Z 25007KT 03/M01 A3044 RMK A01 T00271008  RH  078%=      5-min Rain = 0
KWA1 101553Z 25008KT 03/M01 A3044 RMK A01 T00271009  RH  077%=      5-min Rain = 0
KWA1 101554Z 25006KT 03/M01 A3044 RMK A01 T00271007  RH  078%=      5-min Rain = 0
KWA1 101555Z 25008KT 03/M01 A3044 RMK A01 T00271007  RH  078%=      5-min Rain = 0
KWA1 101556Z 25007KT 03/M01 A3044 RMK A01 T00271007  RH  078%=      5-min Rain = 0
KWA1 101557Z 24008KT 03/M01 A3044 RMK A01 T00281005  RH  079%=      5-min Rain = 0
KWA1 101558Z 24007KT 03/M01 A3044 RMK A01 T00281007  RH  078%=      5-min Rain = 0
KWA1 101559Z 24006KT 03/M01 A3044 RMK A01 T00281005  RH  079%=      5-min Rain = 0
KWA1 101600Z 24007KT 03/M00 A3044 RMK A01 T00301002  RH  080%=      5-min Rain = 0
KWA1 101601Z 24006KT 03/M01 A3044 RMK A01 T00301006  RH  077%=      5-min Rain = 0
KWA1 101602Z 23007KT 03/M01 A3044 RMK A01 T00291005  RH  078%=      5-min Rain = 0
KWA1 101603Z 24007KT 03/M00 A3044 RMK A01 T00311001  RH  080%=      5-min Rain = 0
KWA1 101604Z 24007KT 03/M00 A3044 RMK A01 T00311001  RH  079%=      5-min Rain = 0
KWA1 101605Z 24007KT 03/M00 A3044 RMK A01 T00321002  RH  078%=      5-min Rain = 0
KWA1 101606Z 24007KT 03/M00 A3044 RMK A01 T00321001  RH  079%=      5-min Rain = 0
KWA1 101607Z 23007KT 03/00 A3044 RMK A01 T00330000  RH  079%=      5-min Rain = 0
KWA1 101608Z 24005KT 03/00 A3044 RMK A01 T00340002  RH  080%=      5-min Rain = 0
KWA1 101609Z 23006KT 04/01 A3044 RMK A01 T00360005  RH  080%=      5-min Rain = 0
KWA1 101610Z 25007KT 04/00 A3044 RMK A01 T00370004  RH  079%=      5-min Rain = 0
KWA1 101611Z 24005KT 04/00 A3044 RMK A01 T003600-0  RH  077%=      5-min Rain = 0
KWA1 101612Z 24005KT 04/00 A3044 RMK A01 T00360002  RH  079%=      5-min Rain = 0
KWA1 101613Z 24007KT 04/01 A3044 RMK A01 T00380006  RH  080%=      5-min Rain = 0
KWA1 101614Z 25008KT 04/01 A3044 RMK A01 T00390006  RH  079%=      5-min Rain = 0
KWA1 101615Z 25007KT 04/01 A3044 RMK A01 T00400005  RH  078%=      5-min Rain = 0
KWA1 101616Z 26007KT 04/00 A3044 RMK A01 T00410004  RH  077%=      5-min Rain = 0
KWA1 101617Z 25007KT 04/01 A3044 RMK A01 T00410005  RH  077%=      5-min Rain = 0
KWA1 101618Z 25008KT 04/01 A3044 RMK A01 T00410005  RH  077%=      5-min Rain = 0
KWA1 101619Z 25007KT 04/01 A3044 RMK A01 T00420006  RH  077%=      5-min Rain = 0
KWA1 101620Z 26006KT 04/01 A3044 RMK A01 T00430009  RH  078%=      5-min Rain = 0
KWA1 101621Z 24008KT 04/01 A3044 RMK A01 T00440010  RH  078%=      5-min Rain = 0
KWA1 101622Z 24007KT 05/01 A3044 RMK A01 T00450010  RH  078%=      5-min Rain = 0
KWA1 101623Z 24008KT 05/01 A3044 RMK A01 T00450009  RH  077%=      5-min Rain = 0
KWA1 101624Z 25008KT 05/01 A3044 RMK A01 T00450007  RH  076%=      5-min Rain = 0
KWA1 101625Z 26008KT 05/01 A3044 RMK A01 T00450009  RH  077%=      5-min Rain = 0
KWA1 101626Z 26008KT 05/01 A3044 RMK A01 T00450010  RH  078%=      5-min Rain = 0
KWA1 101627Z 25008KT 05/01 A3044 RMK A01 T00450010  RH  078%=      5-min Rain = 0
KWA1 101628Z 24007KT 05/01 A3044 RMK A01 T00450009  RH  077%=      5-min Rain = 0
KWA1 101629Z 25007KT 05/01 A3044 RMK A01 T00460010  RH  078%=      5-min Rain = 0
KWA1 101630Z 26008KT 05/01 A3044 RMK A01 T00470014  RH  079%=      5-min Rain = 0
KWA1 101631Z 26008KT 05/02 A3044 RMK A01 T00490015  RH  079%=      5-min Rain = 0
KWA1 101632Z 26009KT 05/01 A3044 RMK A01 T00500014  RH  077%=      5-min Rain = 0
KWA1 101633Z 25009KT 05/01 A3044 RMK A01 T00500013  RH  077%=      5-min Rain = 0
KWA1 101634Z 25007KT 05/01 A3044 RMK A01 T00500014  RH  078%=      5-min Rain = 0
KWA1 101635Z 26008KT 05/02 A3044 RMK A01 T00520017  RH  078%=      5-min Rain = 0
KWA1 101636Z 25007KT 05/02 A3043 RMK A01 T00520017  RH  078%=      5-min Rain = 0
KWA1 101637Z 25008KT 05/02 A3043 RMK A01 T00530016  RH  077%=      5-min Rain = 0
KWA1 101638Z 25008KT 05/01 A3043 RMK A01 T00530012  RH  075%=      5-min Rain = 0
KWA1 101639Z 24008KT 05/02 A3043 RMK A01 T00520015  RH  077%=      5-min Rain = 0
KWA1 101640Z 24008KT 05/02 A3043 RMK A01 T00530017  RH  077%=      5-min Rain = 0
KWA1 101641Z 25008KT 05/01 A3043 RMK A01 T00540013  RH  075%=      5-min Rain = 0
KWA1 101642Z 24008KT 05/02 A3043 RMK A01 T00540015  RH  076%=      5-min Rain = 0
KWA1 101643Z 24008KT 06/02 A3043 RMK A01 T00560018  RH  077%=      5-min Rain = 0
KWA1 101644Z 25009KT 06/02 A3043 RMK A01 T00570019  RH  076%=      5-min Rain = 0
KWA1 101645Z 25009KT 06/02 A3043 RMK A01 T00580019  RH  076%=      5-min Rain = 0
KWA1 101646Z 24008KT 06/02 A3043 RMK A01 T00590020  RH  076%=      5-min Rain = 0
KWA1 101647Z 25009KT 06/02 A3043 RMK A01 T00600022  RH  076%=      5-min Rain = 0
KWA1 101648Z 25010KT 06/02 A3043 RMK A01 T00610020  RH  075%=      5-min Rain = 0
KWA1 101649Z 25009KT 06/02 A3043 RMK A01 T00610022  RH  076%=      5-min Rain = 0
KWA1 101650Z 25010KT 06/02 A3043 RMK A01 T00620023  RH  076%=      5-min Rain = 0
KWA1 101651Z 25010KT 06/02 A3043 RMK A01 T00630022  RH  075%=      5-min Rain = 0
KWA1 101652Z 25009KT 06/02 A3043 RMK A01 T00630022  RH  075%=      5-min Rain = 0
KWA1 101653Z 25009KT 06/02 A3043 RMK A01 T00630022  RH  075%=      5-min Rain = 0
KWA1 101654Z 24008KT 06/02 A3043 RMK A01 T00630021  RH  075%=      5-min Rain = 0
KWA1 101655Z 25008KT 06/02 A3043 RMK A01 T00640022  RH  075%=      5-min Rain = 0
KWA1 101656Z 24009KT 07/03 A3043 RMK A01 T00650025  RH  075%=      5-min Rain = 0
KWA1 101657Z 25010KT 07/02 A3043 RMK A01 T00670024  RH  074%=      5-min Rain = 0
KWA1 101658Z 25011KT 07/02 A3043 RMK A01 T00680023  RH  073%=      5-min Rain = 0
KWA1 101659Z 26011KT 07/02 A3043 RMK A01 T00680024  RH  073%=      5-min Rain = 0
KWA1 101700Z 26011KT 07/03 A3043 RMK A01 T00690025  RH  073%=      5-min Rain = 0
KWA1 101701Z 25010KT 07/03 A3043 RMK A01 T00700026  RH  074%=      5-min Rain = 0
KWA1 101702Z 26009KT 07/03 A3043 RMK A01 T00710027  RH  074%=      5-min Rain = 0
KWA1 101703Z 26010KT 07/03 A3043 RMK A01 T00730030  RH  074%=      5-min Rain = 0
KWA1 101704Z 26010KT 07/03 A3043 RMK A01 T00740028  RH  072%=      5-min Rain = 0
KWA1 101705Z 26010KT 08/03 A3043 RMK A01 T00750027  RH  072%=      5-min Rain = 0
KWA1 101706Z 26009KT 08/03 A3043 RMK A01 T00760030  RH  072%=      5-min Rain = 0
KWA1 101707Z 26010KT 08/03 A3043 RMK A01 T00770028  RH  071%=      5-min Rain = 0
KWA1 101708Z 26010KT 08/03 A3043 RMK A01 T00770027  RH  071%=      5-min Rain = 0
KWA1 101709Z 27009KT 08/03 A3043 RMK A01 T00770027  RH  071%=      5-min Rain = 0
KWA1 101710Z 27009KT 08/03 A3043 RMK A01 T00780030  RH  072%=      5-min Rain = 0
KWA1 101711Z 26011KT 08/03 A3043 RMK A01 T00790030  RH  071%=      5-min Rain = 0
KWA1 101712Z 26010KT 08/03 A3042 RMK A01 T00810031  RH  071%=      5-min Rain = 0
KWA1 101713Z 27011KT 08/03 A3042 RMK A01 T00810029  RH  069%=      5-min Rain = 0
KWA1 101714Z 27010KT 08/03 A3042 RMK A01 T00810028  RH  069%=      5-min Rain = 0
KWA1 101715Z 26009KT 08/03 A3042 RMK A01 T00810029  RH  070%=      5-min Rain = 0
KWA1 101716Z 25010KT 08/03 A3042 RMK A01 T00820032  RH  071%=      5-min Rain = 0
KWA1 101717Z 25009KT 08/03 A3042 RMK A01 T00820030  RH  070%=      5-min Rain = 0
KWA1 101718Z 26008KT 08/04 A3042 RMK A01 T00830035  RH  072%=      5-min Rain = 0
KWA1 101719Z 26010KT 09/04 A3042 RMK A01 T00860039  RH  072%=      5-min Rain = 0
KWA1 101720Z 28010KT 09/03 A3042 RMK A01 T00860033  RH  069%=      5-min Rain = 0
KWA1 101721Z 27009KT 09/03 A3042 RMK A01 T00860031  RH  068%=      5-min Rain = 0
KWA1 101722Z 28010KT 09/03 A3042 RMK A01 T00860033  RH  069%=      5-min Rain = 0
KWA1 101723Z 26010KT 09/03 A3042 RMK A01 T00860030  RH  068%=      5-min Rain = 0
KWA1 101724Z 26009KT 09/03 A3042 RMK A01 T00850028  RH  067%=      5-min Rain = 0
KWA1 101725Z 25010KT 09/03 A3042 RMK A01 T00850031  RH  069%=      5-min Rain = 0
KWA1 101726Z 25010KT 09/03 A3042 RMK A01 T00860029  RH  068%=      5-min Rain = 0
KWA1 101727Z 25010KT 09/03 A3042 RMK A01 T00850029  RH  068%=      5-min Rain = 0
KWA1 101728Z 26009KT 09/03 A3042 RMK A01 T00860030  RH  068%=      5-min Rain = 0
KWA1 101729Z 26010KT 09/04 A3041 RMK A01 T00870036  RH  070%=      5-min Rain = 0
KWA1 101730Z 27009KT 09/04 A3041 RMK A01 T00890038  RH  070%=      5-min Rain = 0
KWA1 101731Z 25009KT 09/04 A3041 RMK A01 T00910040  RH  070%=      5-min Rain = 0
KWA1 101732Z 26011KT 09/03 A3041 RMK A01 T00910032  RH  066%=      5-min Rain = 0
KWA1 101733Z 27011KT 09/03 A3041 RMK A01 T00900034  RH  068%=      5-min Rain = 0
KWA1 101734Z 27009KT 09/03 A3041 RMK A01 T00900033  RH  067%=      5-min Rain = 0
KWA1 101735Z 26010KT 09/03 A3041 RMK A01 T00900034  RH  068%=      5-min Rain = 0
KWA1 101736Z 27009KT 09/04 A3041 RMK A01 T00910039  RH  070%=      5-min Rain = 0
KWA1 101737Z 27010KT 09/04 A3041 RMK A01 T00920037  RH  068%=      5-min Rain = 0
KWA1 101738Z 26013KT 09/03 A3041 RMK A01 T00920034  RH  067%=      5-min Rain = 0
KWA1 101739Z 26012KT 09/03 A3041 RMK A01 T00910031  RH  066%=      5-min Rain = 0
KWA1 101740Z 26012KT 09/03 A3041 RMK A01 T00910033  RH  067%=      5-min Rain = 0
KWA1 101741Z 26012KT 09/03 A3041 RMK A01 T00910032  RH  066%=      5-min Rain = 0
KWA1 101742Z 27011KT 09/03 A3041 RMK A01 T00910034  RH  067%=      5-min Rain = 0
KWA1 101743Z 27011KT 09/04 A3041 RMK A01 T00920036  RH  068%=      5-min Rain = 0
KWA1 101744Z 26010KT 09/04 A3041 RMK A01 T00930035  RH  067%=      5-min Rain = 0
KWA1 101745Z 26012KT 09/04 A3041 RMK A01 T00930035  RH  067%=      5-min Rain = 0
KWA1 101746Z 28012KT 09/03 A3041 RMK A01 T00940034  RH  066%=      5-min Rain = 0
KWA1 101747Z 28011KT 09/04 A3041 RMK A01 T00940036  RH  067%=      5-min Rain = 0
KWA1 101748Z 28010KT 10/04 A3041 RMK A01 T00950036  RH  067%=      5-min Rain = 0
KWA1 101749Z 26008KT 10/05 A3041 RMK A01 T00960045  RH  070%=      5-min Rain = 0
KWA1 101750Z 28011KT 10/04 A3041 RMK A01 T01000044  RH  068%=      5-min Rain = 0
KWA1 101751Z 28010KT 10/04 A3041 RMK A01 T00980036  RH  065%=      5-min Rain = 0
KWA1 101752Z 28007KT 10/03 A3041 RMK A01 T00970034  RH  065%=      5-min Rain = 0
KWA1 101753Z 27010KT 10/04 A3041 RMK A01 T00970040  RH  068%=      5-min Rain = 0
KWA1 101754Z 26008KT 10/04 A3041 RMK A01 T00990044  RH  068%=      5-min Rain = 0
KWA1 101755Z 27009KT 10/05 A3041 RMK A01 T01000045  RH  068%=      5-min Rain = 0
KWA1 101756Z 28009KT 10/04 A3041 RMK A01 T01010039  RH  065%=      5-min Rain = 0
KWA1 101757Z 28009KT 10/04 A3041 RMK A01 T01000044  RH  068%=      5-min Rain = 0
KWA1 101758Z 28011KT 10/04 A304 RMK A01 T01010040  RH  066%=      5-min Rain = 0
KWA1 101759Z 28010KT 10/04 A304 RMK A01 T01000041  RH  067%=      5-min Rain = 0
KWA1 101800Z 29011KT 10/04 A304 RMK A01 T01010042  RH  067%=      5-min Rain = 0
KWA1 101801Z 29011KT 10/04 A304 RMK A01 T01000037  RH  065%=      5-min Rain = 0
KWA1 101802Z 28009KT 10/04 A304 RMK A01 T00990038  RH  066%=      5-min Rain = 0
KWA1 101803Z 28009KT 10/04 A304 RMK A01 T00990040  RH  067%=      5-min Rain = 0
KWA1 101804Z 27009KT 10/04 A304 RMK A01 T01000037  RH  065%=      5-min Rain = 0
KWA1 101805Z 27009KT 10/04 A304 RMK A01 T01000037  RH  065%=      5-min Rain = 0
KWA1 101806Z 27008KT 10/04 A304 RMK A01 T00990041  RH  067%=      5-min Rain = 0
KWA1 101807Z 27010KT 10/04 A304 RMK A01 T01010043  RH  067%=      5-min Rain = 0
KWA1 101808Z 28010KT 10/04 A304 RMK A01 T01010041  RH  066%=      5-min Rain = 0
KWA1 101809Z 27011KT 10/04 A304 RMK A01 T01000039  RH  066%=      5-min Rain = 0
KWA1 101810Z 28010KT 10/04 A304 RMK A01 T00990038  RH  066%=      5-min Rain = 0
KWA1 101811Z 28008KT 10/04 A304 RMK A01 T00990040  RH  067%=      5-min Rain = 0
KWA1 101812Z 28009KT 10/04 A304 RMK A01 T01000042  RH  067%=      5-min Rain = 0
KWA1 101813Z 27009KT 10/04 A3039 RMK A01 T01010044  RH  068%=      5-min Rain = 0
KWA1 101814Z 26010KT 10/04 A3039 RMK A01 T01020044  RH  067%=      5-min Rain = 0
KWA1 101815Z 27008KT 10/04 A3039 RMK A01 T01010036  RH  064%=      5-min Rain = 0
KWA1 101816Z 28008KT 10/04 A3039 RMK A01 T01000042  RH  067%=      5-min Rain = 0
KWA1 101817Z 29009KT 10/04 A3039 RMK A01 T01020043  RH  067%=      5-min Rain = 0
KWA1 101818Z 27009KT 10/04 A3039 RMK A01 T01020040  RH  065%=      5-min Rain = 0
KWA1 101819Z 27010KT 10/04 A3039 RMK A01 T01010038  RH  065%=      5-min Rain = 0
KWA1 101820Z 29010KT 10/04 A3039 RMK A01 T01000037  RH  065%=      5-min Rain = 0
KWA1 101821Z 28009KT 10/04 A3039 RMK A01 T01010040  RH  066%=      5-min Rain = 0
KWA1 101822Z 27009KT 10/04 A3039 RMK A01 T01010038  RH  065%=      5-min Rain = 0
KWA1 101823Z 28008KT 10/04 A3039 RMK A01 T01020041  RH  066%=      5-min Rain = 0
KWA1 101824Z 27007KT 10/04 A3039 RMK A01 T01020041  RH  066%=      5-min Rain = 0
KWA1 101825Z 28007KT 10/04 A3039 RMK A01 T01020042  RH  066%=      5-min Rain = 0
KWA1 101826Z 28008KT 11/05 A3039 RMK A01 T01050051  RH  070%=      5-min Rain = 0
KWA1 101827Z 28009KT 11/05 A3039 RMK A01 T01070049  RH  067%=      5-min Rain = 0
KWA1 101828Z 27009KT 11/04 A3039 RMK A01 T01060042  RH  064%=      5-min Rain = 0
KWA1 101829Z 27010KT 11/05 A3039 RMK A01 T01050045  RH  066%=      5-min Rain = 0
KWA1 101830Z 27009KT 11/04 A3039 RMK A01 T01050044  RH  066%=      5-min Rain = 0
KWA1 101831Z 28008KT 11/04 A3038 RMK A01 T01050043  RH  065%=      5-min Rain = 0
KWA1 101832Z 29010KT 11/05 A3038 RMK A01 T01060049  RH  068%=      5-min Rain = 0
KWA1 101833Z 28008KT 11/04 A3038 RMK A01 T01070043  RH  064%=      5-min Rain = 0
KWA1 101834Z 27008KT 11/04 A3038 RMK A01 T01060041  RH  064%=      5-min Rain = 0
KWA1 101835Z 27007KT 11/04 A3038 RMK A01 T01050038  RH  063%=      5-min Rain = 0
KWA1 101836Z 27006KT 11/04 A3038 RMK A01 T01050044  RH  066%=      5-min Rain = 0
KWA1 101837Z 28009KT 11/05 A3038 RMK A01 T01070047  RH  067%=      5-min Rain = 0
KWA1 101838Z 28008KT 11/05 A3038 RMK A01 T01090047  RH  066%=      5-min Rain = 0
KWA1 101839Z 28008KT 11/04 A3038 RMK A01 T01080043  RH  064%=      5-min Rain = 0
KWA1 101840Z 27009KT 11/05 A3038 RMK A01 T01080047  RH  066%=      5-min Rain = 0
KWA1 101841Z 28008KT 11/05 A3038 RMK A01 T01100047  RH  065%=      5-min Rain = 0
KWA1 101842Z 27009KT 11/05 A3038 RMK A01 T01100047  RH  065%=      5-min Rain = 0
KWA1 101843Z 28007KT 11/05 A3038 RMK A01 T01100047  RH  065%=      5-min Rain = 0
KWA1 101844Z 26007KT 11/05 A3037 RMK A01 T01110045  RH  064%=      5-min Rain = 0
KWA1 101845Z 26010KT 11/04 A3037 RMK A01 T01100042  RH  063%=      5-min Rain = 0
KWA1 101846Z 27009KT 11/05 A3037 RMK A01 T01100045  RH  064%=      5-min Rain = 0
KWA1 101847Z 29009KT 11/04 A3037 RMK A01 T01100042  RH  063%=      5-min Rain = 0
KWA1 101848Z 27007KT 11/04 A3037 RMK A01 T01100042  RH  063%=      5-min Rain = 0
KWA1 101849Z 26008KT 11/05 A3037 RMK A01 T01100046  RH  065%=      5-min Rain = 0
KWA1 101850Z 28007KT 11/04 A3037 RMK A01 T01110040  RH  062%=      5-min Rain = 0
KWA1 101851Z 28008KT 11/04 A3037 RMK A01 T01100041  RH  062%=      5-min Rain = 0
KWA1 101852Z 28009KT 11/04 A3037 RMK A01 T01100041  RH  062%=      5-min Rain = 0
KWA1 101853Z 27007KT 11/04 A3037 RMK A01 T01110041  RH  062%=      5-min Rain = 0
KWA1 101854Z 29004KT 11/04 A3037 RMK A01 T01110041  RH  062%=      5-min Rain = 0
KWA1 101855Z 28005KT 11/04 A3037 RMK A01 T01110037  RH  060%=      5-min Rain = 0
KWA1 101856Z 29009KT 11/05 A3037 RMK A01 T01130046  RH  063%=      5-min Rain = 0
KWA1 101857Z 29010KT 12/04 A3036 RMK A01 T01150043  RH  061%=      5-min Rain = 0
KWA1 101858Z 30010KT 12/04 A3036 RMK A01 T01150042  RH  061%=      5-min Rain = 0
KWA1 101859Z 29008KT 12/05 A3036 RMK A01 T01160045  RH  062%=      5-min Rain = 0
KWA1 101900Z 29008KT 12/05 A3036 RMK A01 T01160045  RH  062%=      5-min Rain = 0
KWA1 101901Z 29007KT 12/05 A3036 RMK A01 T01170049  RH  063%=      5-min Rain = 0
KWA1 101902Z 27006KT 12/05 A3036 RMK A01 T01180049  RH  063%=      5-min Rain = 0
KWA1 101903Z 28008KT 12/05 A3036 RMK A01 T01190048  RH  062%=      5-min Rain = 0
KWA1 101904Z 28009KT 12/05 A3036 RMK A01 T01190046  RH  061%=      5-min Rain = 0
KWA1 101905Z 29009KT 12/04 A3036 RMK A01 T01190041  RH  059%=      5-min Rain = 0
KWA1 101906Z 28009KT 12/05 A3036 RMK A01 T01180046  RH  062%=      5-min Rain = 0
KWA1 101907Z 27008KT 12/04 A3036 RMK A01 T01190044  RH  060%=      5-min Rain = 0
KWA1 101908Z 27007KT 12/04 A3036 RMK A01 T01190040  RH  058%=      5-min Rain = 0
KWA1 101909Z 26006KT 12/04 A3036 RMK A01 T01170041  RH  060%=      5-min Rain = 0
KWA1 101910Z 27008KT 12/04 A3036 RMK A01 T01180044  RH  061%=      5-min Rain = 0
KWA1 101911Z 28007KT 12/04 A3036 RMK A01 T01180040  RH  059%=      5-min Rain = 0
KWA1 101912Z 29007KT 12/04 A3036 RMK A01 T01170038  RH  058%=      5-min Rain = 0
KWA1 101913Z 28008KT 12/04 A3036 RMK A01 T01170042  RH  060%=      5-min Rain = 0
KWA1 101914Z 29007KT 12/04 A3036 RMK A01 T01170044  RH  061%=      5-min Rain = 0
KWA1 101915Z 29009KT 12/05 A3036 RMK A01 T01180046  RH  061%=      5-min Rain = 0
KWA1 101916Z 29008KT 12/05 A3036 RMK A01 T01190045  RH  061%=      5-min Rain = 0
KWA1 101917Z 28007KT 12/04 A3036 RMK A01 T01180041  RH  059%=      5-min Rain = 0
KWA1 101918Z 28006KT 12/04 A3036 RMK A01 T01180043  RH  060%=      5-min Rain = 0
KWA1 101919Z 30008KT 12/05 A3036 RMK A01 T01180045  RH  061%=      5-min Rain = 0
KWA1 101920Z 29010KT 12/04 A3036 RMK A01 T01180039  RH  058%=      5-min Rain = 0
KWA1 101921Z 29008KT 12/04 A3036 RMK A01 T01180039  RH  058%=      5-min Rain = 0
KWA1 101922Z 29007KT 12/04 A3036 RMK A01 T01180041  RH  059%=      5-min Rain = 0
KWA1 101923Z 29006KT 12/04 A3036 RMK A01 T01180043  RH  060%=      5-min Rain = 0
KWA1 101924Z 27007KT 12/04 A3036 RMK A01 T01190043  RH  059%=      5-min Rain = 0
KWA1 101925Z 29009KT 12/05 A3036 RMK A01 T01200045  RH  060%=      5-min Rain = 0
KWA1 101926Z 29010KT 12/05 A3035 RMK A01 T01210045  RH  060%=      5-min Rain = 0
KWA1 101927Z 29009KT 12/04 A3035 RMK A01 T01210042  RH  059%=      5-min Rain = 0
KWA1 101928Z 27007KT 12/04 A3035 RMK A01 T01200037  RH  057%=      5-min Rain = 0
KWA1 101929Z 28007KT 12/04 A3035 RMK A01 T01190040  RH  058%=      5-min Rain = 0
KWA1 101930Z 28007KT 12/04 A3035 RMK A01 T01190038  RH  058%=      5-min Rain = 0
KWA1 101931Z 26005KT 12/04 A3035 RMK A01 T01190040  RH  058%=      5-min Rain = 0
KWA1 101932Z 27005KT 12/04 A3035 RMK A01 T01190040  RH  058%=      5-min Rain = 0
KWA1 101933Z 29007KT 12/05 A3035 RMK A01 T01200045  RH  060%=      5-min Rain = 0
KWA1 101934Z 29009KT 12/05 A3035 RMK A01 T01210046  RH  060%=      5-min Rain = 0
KWA1 101935Z 27007KT 12/04 A3035 RMK A01 T01210041  RH  058%=      5-min Rain = 0
KWA1 101936Z 25006KT 12/04 A3035 RMK A01 T01210041  RH  058%=      5-min Rain = 0
KWA1 101937Z 27005KT 12/04 A3035 RMK A01 T01200040  RH  058%=      5-min Rain = 0
KWA1 101938Z 28007KT 12/05 A3035 RMK A01 T01210045  RH  060%=      5-min Rain = 0
KWA1 101939Z 27007KT 12/05 A3035 RMK A01 T01230046  RH  059%=      5-min Rain = 0
KWA1 101940Z 28009KT 12/04 A3035 RMK A01 T01230038  RH  056%=      5-min Rain = 0
KWA1 101941Z 28009KT 12/04 A3035 RMK A01 T01230040  RH  057%=      5-min Rain = 0
KWA1 101942Z 27008KT 12/04 A3035 RMK A01 T01230043  RH  058%=      5-min Rain = 0
KWA1 101943Z 26008KT 12/04 A3035 RMK A01 T01240039  RH  056%=      5-min Rain = 0
KWA1 101944Z 27008KT 12/04 A3035 RMK A01 T01230037  RH  056%=      5-min Rain = 0
KWA1 101945Z 28009KT 12/04 A3035 RMK A01 T01230042  RH  058%=      5-min Rain = 0
KWA1 101946Z 29008KT 12/04 A3035 RMK A01 T01230039  RH  056%=      5-min Rain = 0
KWA1 101947Z 29007KT 12/04 A3035 RMK A01 T01220036  RH  056%=      5-min Rain = 0
KWA1 101948Z 27007KT 12/04 A3035 RMK A01 T01220041  RH  057%=      5-min Rain = 0
KWA1 101949Z 28006KT 12/04 A3035 RMK A01 T01220038  RH  056%=      5-min Rain = 0
KWA1 101950Z 29007KT 12/04 A3035 RMK A01 T01230038  RH  056%=      5-min Rain = 0
KWA1 101951Z 29005KT 12/03 A3035 RMK A01 T01230031  RH  053%=      5-min Rain = 0
KWA1 101952Z 28004KT 12/03 A3035 RMK A01 T01220031  RH  054%=      5-min Rain = 0
KWA1 101953Z 28005KT 12/04 A3035 RMK A01 T01220037  RH  056%=      5-min Rain = 0
KWA1 101954Z 29006KT 12/04 A3035 RMK A01 T01230036  RH  055%=      5-min Rain = 0
KWA1 101955Z 27006KT 12/04 A3034 RMK A01 T01230036  RH  055%=      5-min Rain = 0
KWA1 101956Z 28009KT 12/05 A3034 RMK A01 T01240049  RH  060%=      5-min Rain = 0
KWA1 101957Z 28005KT 12/04 A3034 RMK A01 T01240038  RH  056%=      5-min Rain = 0
KWA1 101958Z 29003KT 12/03 A3034 RMK A01 T01230034  RH  055%=      5-min Rain = 0
KWA1 101959Z 29005KT 12/05 A3034 RMK A01 T01230047  RH  060%=      5-min Rain = 0
KWA1 102000Z 29008KT 13/05 A3034 RMK A01 T01260051  RH  060%=      5-min Rain = 0
KWA1 102001Z 30008KT 13/05 A3034 RMK A01 T01270050  RH  060%=      5-min Rain = 0
KWA1 102002Z 29007KT 13/04 A3034 RMK A01 T01270044  RH  057%=      5-min Rain = 0
KWA1 102003Z 29007KT 13/04 A3034 RMK A01 T01260043  RH  057%=      5-min Rain = 0
KWA1 102004Z 29006KT 13/04 A3034 RMK A01 T01260042  RH  057%=      5-min Rain = 0
KWA1 102005Z 30004KT 13/05 A3034 RMK A01 T01270050  RH  059%=      5-min Rain = 0
KWA1 102006Z 29006KT 13/05 A3034 RMK A01 T01280046  RH  057%=      5-min Rain = 0
KWA1 102007Z 30005KT 13/04 A3034 RMK A01 T01280044  RH  057%=      5-min Rain = 0
KWA1 102008Z 30006KT 13/05 A3034 RMK A01 T01280047  RH  058%=      5-min Rain = 0
KWA1 102009Z 27008KT 13/04 A3034 RMK A01 T01280040  RH  055%=      5-min Rain = 0
KWA1 102010Z 29006KT 13/04 A3034 RMK A01 T01270041  RH  056%=      5-min Rain = 0
KWA1 102011Z 30006KT 13/04 A3034 RMK A01 T01270040  RH  055%=      5-min Rain = 0
KWA1 102012Z 29006KT 13/04 A3034 RMK A01 T01270036  RH  054%=      5-min Rain = 0
KWA1 102013Z 29005KT 13/04 A3034 RMK A01 T01260038  RH  055%=      5-min Rain = 0
KWA1 102014Z 28005KT 13/04 A3034 RMK A01 T01270040  RH  056%=      5-min Rain = 0
KWA1 102015Z 30004KT 13/03 A3034 RMK A01 T01260033  RH  053%=      5-min Rain = 0
KWA1 102016Z 30006KT 13/03 A3034 RMK A01 T01250033  RH  053%=      5-min Rain = 0
KWA1 102017Z 29004KT 13/04 A3034 RMK A01 T01250040  RH  056%=      5-min Rain = 0
KWA1 102018Z 27005KT 13/05 A3034 RMK A01 T01270049  RH  059%=      5-min Rain = 0
KWA1 102019Z 29002KT 13/04 A3034 RMK A01 T01280035  RH  053%=      5-min Rain = 0
KWA1 102020Z 31006KT 13/04 A3034 RMK A01 T01290041  RH  055%=      5-min Rain = 0
KWA1 102021Z 29007KT 13/04 A3034 RMK A01 T01290044  RH  056%=      5-min Rain = 0
KWA1 102022Z 29005KT 13/04 A3034 RMK A01 T01300041  RH  055%=      5-min Rain = 0
KWA1 102023Z 29005KT 13/04 A3034 RMK A01 T01300037  RH  053%=      5-min Rain = 0
KWA1 102024Z 29004KT 13/04 A3034 RMK A01 T01290035  RH  053%=      5-min Rain = 0
KWA1 102025Z 26006KT 13/04 A3034 RMK A01 T01300044  RH  056%=      5-min Rain = 0
KWA1 102026Z 27007KT 13/04 A3034 RMK A01 T01300038  RH  054%=      5-min Rain = 0
KWA1 102027Z 25006KT 13/04 A3034 RMK A01 T01290037  RH  054%=      5-min Rain = 0
KWA1 102028Z 26005KT 13/04 A3034 RMK A01 T01280039  RH  055%=      5-min Rain = 0
KWA1 102029Z 27006KT 13/04 A3034 RMK A01 T01290039  RH  054%=      5-min Rain = 0
KWA1 102030Z 27006KT 13/04 A3033 RMK A01 T01280039  RH  055%=      5-min Rain = 0
KWA1 102031Z 25006KT 13/04 A3033 RMK A01 T01280038  RH  054%=      5-min Rain = 0
KWA1 102032Z 25004KT 13/03 A3033 RMK A01 T01270030  RH  052%=      5-min Rain = 0
KWA1 102033Z 27007KT 13/04 A3033 RMK A01 T01270041  RH  056%=      5-min Rain = 0
KWA1 102034Z 27007KT 13/04 A3033 RMK A01 T01280041  RH  056%=      5-min Rain = 0
KWA1 102035Z 26007KT 13/04 A3033 RMK A01 T01280043  RH  056%=      5-min Rain = 0
KWA1 102036Z 28007KT 13/04 A3033 RMK A01 T01270041  RH  056%=      5-min Rain = 0
KWA1 102037Z 29007KT 13/05 A3033 RMK A01 T01270048  RH  059%=      5-min Rain = 0
KWA1 102038Z 30007KT 13/04 A3033 RMK A01 T01300044  RH  056%=      5-min Rain = 0
KWA1 102039Z 29005KT 13/04 A3033 RMK A01 T01300040  RH  054%=      5-min Rain = 0
KWA1 102040Z 27004KT 13/04 A3033 RMK A01 T01290038  RH  054%=      5-min Rain = 0
KWA1 102041Z 27003KT 13/04 A3033 RMK A01 T01290041  RH  055%=      5-min Rain = 0
KWA1 102042Z 27005KT 13/04 A3033 RMK A01 T01290043  RH  056%=      5-min Rain = 0
KWA1 102043Z 26006KT 13/04 A3033 RMK A01 T01290042  RH  055%=      5-min Rain = 0
KWA1 102044Z 26008KT 13/04 A3033 RMK A01 T01290044  RH  056%=      5-min Rain = 0
KWA1 102045Z 26006KT 13/04 A3033 RMK A01 T01290043  RH  056%=      5-min Rain = 0
KWA1 102046Z 26005KT 13/04 A3033 RMK A01 T01290042  RH  056%=      5-min Rain = 0
KWA1 102047Z 27004KT 13/04 A3033 RMK A01 T01290040  RH  055%=      5-min Rain = 0
KWA1 102048Z 27006KT 13/04 A3033 RMK A01 T01290039  RH  054%=      5-min Rain = 0
KWA1 102049Z 26004KT 13/04 A3033 RMK A01 T01290038  RH  054%=      5-min Rain = 0
KWA1 102050Z 27003KT 13/04 A3033 RMK A01 T01300040  RH  054%=      5-min Rain = 0
KWA1 102051Z 27005KT 13/04 A3033 RMK A01 T01310041  RH  054%=      5-min Rain = 0
KWA1 102052Z 28007KT 13/04 A3033 RMK A01 T01320044  RH  055%=      5-min Rain = 0
KWA1 102053Z 28005KT 13/04 A3033 RMK A01 T01320041  RH  054%=      5-min Rain = 0
KWA1 102054Z 28003KT 13/04 A3033 RMK A01 T01310041  RH  054%=      5-min Rain = 0
KWA1 102055Z 26006KT 13/05 A3033 RMK A01 T01320045  RH  055%=      5-min Rain = 0
KWA1 102056Z 27007KT 13/04 A3033 RMK A01 T01320043  RH  055%=      5-min Rain = 0
KWA1 102057Z 26006KT 13/04 A3033 RMK A01 T01320039  RH  053%=      5-min Rain = 0
KWA1 102058Z 28005KT 13/04 A3033 RMK A01 T01310040  RH  054%=      5-min Rain = 0
KWA1 102059Z 27005KT 13/04 A3033 RMK A01 T01310041  RH  054%=      5-min Rain = 0
KWA1 102100Z 27004KT 13/04 A3033 RMK A01 T01310036  RH  052%=      5-min Rain = 0
KWA1 102101Z 26005KT 13/04 A3033 RMK A01 T01310036  RH  052%=      5-min Rain = 0
KWA1 102102Z 25005KT 13/04 A3033 RMK A01 T01310038  RH  053%=      5-min Rain = 0
KWA1 102103Z 27004KT 13/03 A3033 RMK A01 T01310034  RH  052%=      5-min Rain = 0
KWA1 102104Z 26005KT 13/04 A3033 RMK A01 T01300039  RH  054%=      5-min Rain = 0
KWA1 102105Z 22004KT 13/04 A3033 RMK A01 T01310036  RH  052%=      5-min Rain = 0
KWA1 102106Z 22003KT 13/04 A3033 RMK A01 T01310039  RH  053%=      5-min Rain = 0
KWA1 102107Z 22003KT 13/04 A3033 RMK A01 T01330036  RH  052%=      5-min Rain = 0
KWA1 102108Z 21003KT 13/04 A3033 RMK A01 T01330035  RH  051%=      5-min Rain = 0
KWA1 102109Z 25003KT 13/04 A3033 RMK A01 T01340041  RH  054%=      5-min Rain = 0
KWA1 102110Z 25002KT 14/04 A3033 RMK A01 T01350042  RH  053%=      5-min Rain = 0
KWA1 102111Z 26006KT 14/04 A3033 RMK A01 T01360042  RH  053%=      5-min Rain = 0
KWA1 102112Z 26006KT 14/04 A3033 RMK A01 T01360044  RH  054%=      5-min Rain = 0
KWA1 102113Z 26007KT 14/04 A3033 RMK A01 T01350042  RH  053%=      5-min Rain = 0
KWA1 102114Z 25005KT 13/04 A3033 RMK A01 T01330041  RH  054%=      5-min Rain = 0
KWA1 102115Z 26004KT 13/04 A3033 RMK A01 T01330041  RH  054%=      5-min Rain = 0
KWA1 102116Z 28004KT 13/05 A3033 RMK A01 T01330046  RH  056%=      5-min Rain = 0
KWA1 102117Z 28004KT 14/04 A3033 RMK A01 T01350041  RH  053%=      5-min Rain = 0
KWA1 102118Z 27003KT 13/04 A3033 RMK A01 T01340039  RH  052%=      5-min Rain = 0
KWA1 102119Z 25003KT 13/04 A3033 RMK A01 T01340041  RH  053%=      5-min Rain = 0
KWA1 102120Z 25005KT 13/04 A3033 RMK A01 T01340041  RH  053%=      5-min Rain = 0
KWA1 102121Z 24005KT 14/04 A3033 RMK A01 T01350039  RH  052%=      5-min Rain = 0
KWA1 102122Z 25006KT 13/04 A3033 RMK A01 T01340037  RH  052%=      5-min Rain = 0
KWA1 102123Z 26006KT 13/04 A3033 RMK A01 T01340040  RH  053%=      5-min Rain = 0
KWA1 102124Z 24004KT 13/04 A3033 RMK A01 T01330035  RH  051%=      5-min Rain = 0
KWA1 102125Z 25004KT 13/04 A3033 RMK A01 T01340035  RH  051%=      5-min Rain = 0
KWA1 102126Z 25006KT 13/04 A3033 RMK A01 T01330038  RH  052%=      5-min Rain = 0
KWA1 102127Z 26003KT 13/04 A3033 RMK A01 T01330035  RH  052%=      5-min Rain = 0
KWA1 102128Z 22004KT 13/04 A3033 RMK A01 T01330041  RH  054%=      5-min Rain = 0
KWA1 102129Z 22004KT 13/04 A3033 RMK A01 T01330040  RH  053%=      5-min Rain = 0
KWA1 102130Z 21004KT 13/04 A3033 RMK A01 T01340038  RH  052%=      5-min Rain = 0
KWA1 102131Z 20003KT 13/04 A3033 RMK A01 T01340040  RH  053%=      5-min Rain = 0
KWA1 102132Z 19002KT 13/04 A3033 RMK A01 T01340038  RH  052%=      5-min Rain = 0
KWA1 102133Z 24003KT 14/04 A3033 RMK A01 T01350035  RH  051%=      5-min Rain = 0
KWA1 102134Z 26002KT 13/04 A3033 RMK A01 T01340036  RH  051%=      5-min Rain = 0
KWA1 102135Z 23002KT 14/04 A3033 RMK A01 T01350041  RH  053%=      5-min Rain = 0
KWA1 102136Z 25004KT 14/04 A3033 RMK A01 T01370044  RH  054%=      5-min Rain = 0
KWA1 102137Z 27005KT 14/05 A3033 RMK A01 T01370045  RH  054%=      5-min Rain = 0
KWA1 102138Z 29003KT 14/04 A3033 RMK A01 T01370041  RH  052%=      5-min Rain = 0
KWA1 102139Z 27004KT 14/04 A3033 RMK A01 T01370042  RH  053%=      5-min Rain = 0
KWA1 102140Z 28005KT 14/04 A3033 RMK A01 T01360037  RH  051%=      5-min Rain = 0
KWA1 102141Z 28006KT 14/04 A3033 RMK A01 T01360043  RH  054%=      5-min Rain = 0
KWA1 102142Z 28006KT 14/04 A3033 RMK A01 T01350037  RH  051%=      5-min Rain = 0
KWA1 102143Z 28006KT 13/04 A3033 RMK A01 T01340041  RH  053%=      5-min Rain = 0
KWA1 102144Z 29005KT 13/04 A3033 RMK A01 T01340041  RH  053%=      5-min Rain = 0
KWA1 102145Z 28003KT 13/04 A3033 RMK A01 T01340035  RH  051%=      5-min Rain = 0
KWA1 102146Z 27004KT 13/04 A3033 RMK A01 T01340040  RH  053%=      5-min Rain = 0
KWA1 102147Z 25004KT 14/04 A3033 RMK A01 T01350043  RH  054%=      5-min Rain = 0
KWA1 102148Z 24003KT 14/04 A3033 RMK A01 T01350036  RH  051%=      5-min Rain = 0
KWA1 102149Z 26003KT 13/03 A3033 RMK A01 T01340034  RH  051%=      5-min Rain = 0
KWA1 102150Z 27004KT 13/04 A3033 RMK A01 T01340037  RH  052%=      5-min Rain = 0
KWA1 102151Z 24003KT 13/04 A3033 RMK A01 T01340042  RH  053%=      5-min Rain = 0
KWA1 102152Z 21003KT 14/04 A3033 RMK A01 T01350039  RH  052%=      5-min Rain = 0
KWA1 102153Z 22004KT 14/04 A3033 RMK A01 T01350040  RH  052%=      5-min Rain = 0
KWA1 102154Z 23004KT 14/04 A3033 RMK A01 T01350039  RH  052%=      5-min Rain = 0
KWA1 102155Z 22004KT 14/04 A3032 RMK A01 T01360039  RH  052%=      5-min Rain = 0
KWA1 102156Z 25004KT 14/04 A3032 RMK A01 T01360039  RH  052%=      5-min Rain = 0
KWA1 102157Z 27003KT 14/04 A3032 RMK A01 T01350035  RH  051%=      5-min Rain = 0
KWA1 102158Z 27003KT 14/04 A3032 RMK A01 T01350040  RH  053%=      5-min Rain = 0
KWA1 102159Z 23004KT 14/04 A3032 RMK A01 T01350041  RH  053%=      5-min Rain = 0
KWA1 102200Z 22004KT 14/04 A3032 RMK A01 T01350040  RH  053%=      5-min Rain = 0
KWA1 102201Z 22004KT 14/04 A3032 RMK A01 T01350040  RH  052%=      5-min Rain = 0
KWA1 102202Z 23005KT 14/05 A3032 RMK A01 T01350046  RH  055%=      5-min Rain = 0
KWA1 102203Z 23005KT 14/04 A3032 RMK A01 T01350042  RH  053%=      5-min Rain = 0
KWA1 102204Z 23005KT 13/04 A3032 RMK A01 T01340037  RH  052%=      5-min Rain = 0
KWA1 102205Z 23004KT 13/03 A3032 RMK A01 T01330033  RH  050%=      5-min Rain = 0
KWA1 102206Z 21003KT 13/03 A3032 RMK A01 T01330033  RH  051%=      5-min Rain = 0
KWA1 102207Z 22003KT 13/04 A3032 RMK A01 T01330035  RH  051%=      5-min Rain = 0
KWA1 102208Z 24003KT 13/04 A3032 RMK A01 T01330039  RH  053%=      5-min Rain = 0
KWA1 102209Z 25002KT 13/03 A3032 RMK A01 T01330034  RH  051%=      5-min Rain = 0
KWA1 102210Z 28003KT 13/03 A3032 RMK A01 T01340034  RH  051%=      5-min Rain = 0
KWA1 102211Z 28003KT 13/04 A3032 RMK A01 T01340036  RH  051%=      5-min Rain = 0
KWA1 102212Z 24003KT 13/04 A3032 RMK A01 T01340038  RH  052%=      5-min Rain = 0
KWA1 102213Z 24001KT 13/04 A3032 RMK A01 T01340036  RH  051%=      5-min Rain = 0
KWA1 102214Z 28001KT 14/04 A3032 RMK A01 T01350043  RH  053%=      5-min Rain = 0
KWA1 102215Z 20001KT 14/04 A3032 RMK A01 T01370044  RH  053%=      5-min Rain = 0
KWA1 102216Z 18002KT 14/04 A3032 RMK A01 T01380037  RH  051%=      5-min Rain = 0
KWA1 102217Z 21002KT 14/04 A3032 RMK A01 T01380039  RH  051%=      5-min Rain = 0
KWA1 102218Z 24002KT 14/04 A3032 RMK A01 T01380037  RH  051%=      5-min Rain = 0
KWA1 102219Z 23001KT 14/04 A3032 RMK A01 T01380039  RH  051%=      5-min Rain = 0
KWA1 102220Z 24001KT 14/04 A3032 RMK A01 T01380035  RH  050%=      5-min Rain = 0
KWA1 102221Z 23001KT 14/04 A3032 RMK A01 T01380036  RH  050%=      5-min Rain = 0
KWA1 102222Z 22001KT 14/04 A3032 RMK A01 T01380035  RH  050%=      5-min Rain = 0
KWA1 102223Z 22001KT 14/03 A3032 RMK A01 T01370033  RH  049%=      5-min Rain = 0
KWA1 102224Z 25001KT 14/04 A3032 RMK A01 T01380036  RH  050%=      5-min Rain = 0
KWA1 102225Z 26001KT 14/03 A3032 RMK A01 T01380034  RH  049%=      5-min Rain = 0
KWA1 102226Z 26001KT 14/03 A3032 RMK A01 T01380032  RH  049%=      5-min Rain = 0
KWA1 102227Z 26001KT 14/03 A3032 RMK A01 T01380034  RH  049%=      5-min Rain = 0
KWA1 102228Z 26001KT 14/04 A3032 RMK A01 T01390036  RH  050%=      5-min Rain = 0
KWA1 102229Z 25002KT 14/03 A3032 RMK A01 T01400033  RH  049%=      5-min Rain = 0
KWA1 102230Z 24003KT 14/04 A3032 RMK A01 T01390038  RH  050%=      5-min Rain = 0
KWA1 102231Z 23003KT 14/04 A3032 RMK A01 T01370038  RH  051%=      5-min Rain = 0
KWA1 102232Z 24004KT 14/04 A3032 RMK A01 T01360037  RH  051%=      5-min Rain = 0
KWA1 102233Z 24004KT 13/04 A3033 RMK A01 T01340037  RH  052%=      5-min Rain = 0
KWA1 102234Z 24004KT 13/04 A3033 RMK A01 T01330039  RH  053%=      5-min Rain = 0
KWA1 102235Z 25004KT 13/04 A3033 RMK A01 T01320038  RH  053%=      5-min Rain = 0
KWA1 102236Z 25003KT 13/04 A3033 RMK A01 T01310038  RH  053%=      5-min Rain = 0
KWA1 102237Z 24003KT 13/04 A3033 RMK A01 T01310038  RH  053%=      5-min Rain = 0
KWA1 102238Z 23003KT 13/04 A3033 RMK A01 T01300039  RH  054%=      5-min Rain = 0
KWA1 102239Z 23004KT 13/04 A3033 RMK A01 T01300043  RH  056%=      5-min Rain = 0
KWA1 102240Z 23004KT 13/04 A3033 RMK A01 T01300040  RH  055%=      5-min Rain = 0
KWA1 102241Z 23003KT 13/04 A3033 RMK A01 T01290040  RH  055%=      5-min Rain = 0
KWA1 102242Z 22004KT 13/04 A3033 RMK A01 T01290042  RH  055%=      5-min Rain = 0
KWA1 102243Z 22004KT 13/04 A3033 RMK A01 T01290041  RH  055%=      5-min Rain = 0
KWA1 102244Z 22004KT 13/04 A3033 RMK A01 T01280038  RH  054%=      5-min Rain = 0
KWA1 102245Z 21005KT 13/04 A3033 RMK A01 T01280035  RH  053%=      5-min Rain = 0
KWA1 102246Z 22004KT 13/04 A3033 RMK A01 T01290040  RH  055%=      5-min Rain = 0
KWA1 102247Z 22004KT 13/04 A3033 RMK A01 T01280040  RH  055%=      5-min Rain = 0
KWA1 102248Z 23004KT 13/04 A3033 RMK A01 T01280040  RH  055%=      5-min Rain = 0
KWA1 102249Z 22004KT 13/04 A3033 RMK A01 T01280039  RH  055%=      5-min Rain = 0
KWA1 102250Z 22003KT 13/04 A3033 RMK A01 T01280040  RH  055%=      5-min Rain = 0
KWA1 102251Z 21003KT 13/05 A3033 RMK A01 T01280045  RH  057%=      5-min Rain = 0
KWA1 102252Z 21004KT 13/05 A3033 RMK A01 T01270048  RH  059%=      5-min Rain = 0
KWA1 102253Z 21003KT 13/05 A3033 RMK A01 T01270048  RH  059%=      5-min Rain = 0
KWA1 102254Z 21003KT 13/05 A3033 RMK A01 T01270048  RH  059%=      5-min Rain = 0
KWA1 102255Z 21003KT 13/05 A3033 RMK A01 T01270048  RH  059%=      5-min Rain = 0
KWA1 102256Z 21003KT 13/05 A3033 RMK A01 T01270048  RH  059%=      5-min Rain = 0
KWA1 102257Z 22004KT 13/05 A3033 RMK A01 T01270048  RH  058%=      5-min Rain = 0
KWA1 102258Z 22003KT 13/05 A3033 RMK A01 T01270046  RH  058%=      5-min Rain = 0
KWA1 102259Z 22003KT 13/05 A3033 RMK A01 T01270046  RH  058%=      5-min Rain = 0
KWA1 102300Z 22003KT 13/05 A3033 RMK A01 T01270047  RH  058%=      5-min Rain = 0
KWA1 102301Z 22004KT 13/04 A3033 RMK A01 T01270044  RH  057%=      5-min Rain = 0
KWA1 102302Z 22003KT 13/04 A3033 RMK A01 T01260044  RH  057%=      5-min Rain = 0
KWA1 102303Z 23004KT 13/04 A3033 RMK A01 T01260042  RH  057%=      5-min Rain = 0
KWA1 102304Z 22004KT 13/04 A3033 RMK A01 T01250043  RH  057%=      5-min Rain = 0
KWA1 102305Z 22004KT 13/05 A3033 RMK A01 T01250046  RH  059%=      5-min Rain = 0
KWA1 102306Z 22004KT 12/05 A3033 RMK A01 T01240045  RH  058%=      5-min Rain = 0
KWA1 102307Z 22003KT 12/04 A3033 RMK A01 T01240044  RH  058%=      5-min Rain = 0
KWA1 102308Z 22003KT 12/04 A3033 RMK A01 T01230044  RH  058%=      5-min Rain = 0
KWA1 102309Z 23003KT 12/05 A3033 RMK A01 T01230045  RH  059%=      5-min Rain = 0
KWA1 102310Z 22003KT 12/05 A3033 RMK A01 T01220045  RH  059%=      5-min Rain = 0
KWA1 102311Z 22003KT 12/05 A3033 RMK A01 T01210045  RH  060%=      5-min Rain = 0
KWA1 102312Z 22003KT 12/05 A3033 RMK A01 T01200046  RH  060%=      5-min Rain = 0
KWA1 102313Z 22002KT 12/05 A3033 RMK A01 T01200045  RH  060%=      5-min Rain = 0
KWA1 102314Z 22003KT 12/05 A3033 RMK A01 T01190045  RH  060%=      5-min Rain = 0
KWA1 102315Z 22003KT 12/05 A3034 RMK A01 T01190045  RH  061%=      5-min Rain = 0
KWA1 102316Z 22002KT 12/05 A3034 RMK A01 T01190046  RH  061%=      5-min Rain = 0
KWA1 102317Z 22002KT 12/05 A3033 RMK A01 T01180045  RH  061%=      5-min Rain = 0
KWA1 102318Z 22002KT 12/05 A3034 RMK A01 T01180045  RH  061%=      5-min Rain = 0
KWA1 102319Z 22002KT 12/04 A3034 RMK A01 T01180044  RH  061%=      5-min Rain = 0
KWA1 102320Z 22002KT 12/04 A3034 RMK A01 T01170044  RH  061%=      5-min Rain = 0
KWA1 102321Z 22002KT 12/04 A3034 RMK A01 T01180044  RH  061%=      5-min Rain = 0
KWA1 102322Z 22002KT 12/04 A3034 RMK A01 T01170043  RH  060%=      5-min Rain = 0
KWA1 102323Z 22002KT 12/04 A3034 RMK A01 T01170043  RH  060%=      5-min Rain = 0
KWA1 102324Z 21003KT 12/04 A3034 RMK A01 T01170042  RH  060%=      5-min Rain = 0
KWA1 102325Z 21002KT 12/04 A3034 RMK A01 T01160042  RH  060%=      5-min Rain = 0
KWA1 102326Z 21002KT 12/04 A3034 RMK A01 T01160042  RH  060%=      5-min Rain = 0
KWA1 102327Z 21002KT 12/04 A3034 RMK A01 T01150041  RH  060%=      5-min Rain = 0
KWA1 102328Z 21002KT 12/04 A3034 RMK A01 T01150041  RH  061%=      5-min Rain = 0
KWA1 102329Z 21002KT 11/04 A3034 RMK A01 T01140042  RH  061%=      5-min Rain = 0
KWA1 102330Z 20002KT 11/04 A3034 RMK A01 T01140042  RH  061%=      5-min Rain = 0
KWA1 102331Z 20002KT 11/04 A3033 RMK A01 T01140042  RH  061%=      5-min Rain = 0
KWA1 102332Z 20002KT 11/04 A3033 RMK A01 T01130043  RH  062%=      5-min Rain = 0
KWA1 102333Z 20002KT 11/04 A3033 RMK A01 T01130044  RH  063%=      5-min Rain = 0
KWA1 102334Z 19002KT 11/04 A3033 RMK A01 T01130044  RH  063%=      5-min Rain = 0
KWA1 102335Z 19002KT 11/05 A3033 RMK A01 T01120045  RH  064%=      5-min Rain = 0
KWA1 102336Z 19002KT 11/05 A3033 RMK A01 T01110046  RH  064%=      5-min Rain = 0
KWA1 102337Z 19002KT 11/05 A3033 RMK A01 T01100048  RH  066%=      5-min Rain = 0
KWA1 102338Z 19002KT 11/05 A3033 RMK A01 T01090049  RH  066%=      5-min Rain = 0
KWA1 102339Z 18002KT 11/05 A3034 RMK A01 T01080049  RH  067%=      5-min Rain = 0
KWA1 102340Z 18002KT 11/05 A3034 RMK A01 T01060049  RH  068%=      5-min Rain = 0
KWA1 102341Z 17002KT 11/05 A3034 RMK A01 T01050048  RH  068%=      5-min Rain = 0
KWA1 102342Z 17002KT 10/05 A3034 RMK A01 T01040047  RH  068%=      5-min Rain = 0
KWA1 102343Z 17002KT 10/05 A3034 RMK A01 T01040047  RH  068%=      5-min Rain = 0
KWA1 102344Z 17002KT 10/05 A3034 RMK A01 T01030047  RH  068%=      5-min Rain = 0
KWA1 102345Z 17002KT 10/05 A3034 RMK A01 T01020047  RH  069%=      5-min Rain = 0
KWA1 102346Z 16003KT 10/05 A3034 RMK A01 T01010047  RH  069%=      5-min Rain = 0
KWA1 102347Z 15003KT 10/05 A3034 RMK A01 T01020050  RH  070%=      5-min Rain = 0
KWA1 102348Z 14003KT 10/05 A3034 RMK A01 T01010050  RH  070%=      5-min Rain = 0
KWA1 102349Z 14003KT 10/05 A3034 RMK A01 T01000049  RH  070%=      5-min Rain = 0
KWA1 102350Z 14003KT 10/05 A3034 RMK A01 T01000049  RH  071%=      5-min Rain = 0
KWA1 102351Z 14003KT 10/05 A3034 RMK A01 T00990049  RH  071%=      5-min Rain = 0
KWA1 102352Z 14003KT 10/05 A3034 RMK A01 T00980048  RH  071%=      5-min Rain = 0
KWA1 102353Z 15003KT 10/05 A3034 RMK A01 T00970048  RH  072%=      5-min Rain = 0
KWA1 102354Z 15003KT 10/05 A3034 RMK A01 T00960048  RH  072%=      5-min Rain = 0
KWA1 102355Z 15003KT 10/05 A3034 RMK A01 T00960048  RH  072%=      5-min Rain = 0
KWA1 102356Z 14003KT 10/05 A3034 RMK A01 T00950048  RH  072%=      5-min Rain = 0
KWA1 102357Z 14003KT 10/05 A3034 RMK A01 T00960047  RH  071%=      5-min Rain = 0
KWA1 102358Z 14003KT 10/05 A3034 RMK A01 T00960048  RH  072%=      5-min Rain = 0
KWA1 102359Z 13003KT 10/05 A3034 RMK A01 T00960048  RH  072%=      5-min Rain = 0
KWA1 110000Z 13003KT 10/05 A3034 RMK A01 T00950048  RH  073%=      5-min Rain = 0
KWA1 110001Z 13003KT 09/05 A3034 RMK A01 T00940048  RH  073%=      5-min Rain = 0
KWA1 110002Z 13003KT 09/05 A3034 RMK A01 T00930047  RH  073%=      5-min Rain = 0
KWA1 110003Z 13003KT 10/05 A3034 RMK A01 T00950045  RH  071%=      5-min Rain = 0
KWA1 110004Z 13003KT 10/05 A3034 RMK A01 T00980046  RH  070%=      5-min Rain = 0
KWA1 110005Z 13002KT 10/05 A3034 RMK A01 T00970047  RH  071%=      5-min Rain = 0
KWA1 110006Z 13002KT 10/05 A3034 RMK A01 T00950046  RH  071%=      5-min Rain = 0
KWA1 110007Z 13002KT 10/04 A3034 RMK A01 T00950044  RH  070%=      5-min Rain = 0
KWA1 110008Z 13002KT 10/04 A3034 RMK A01 T00960043  RH  069%=      5-min Rain = 0
KWA1 110009Z 13002KT 10/04 A3034 RMK A01 T00960043  RH  070%=      5-min Rain = 0
KWA1 110010Z 13002KT 10/04 A3034 RMK A01 T00950042  RH  069%=      5-min Rain = 0
KWA1 110011Z 13002KT 10/04 A3034 RMK A01 T00950040  RH  068%=      5-min Rain = 0
KWA1 110012Z 13002KT 10/04 A3034 RMK A01 T00960040  RH  068%=      5-min Rain = 0
KWA1 110013Z 14003KT 10/04 A3034 RMK A01 T00970042  RH  069%=      5-min Rain = 0
KWA1 110014Z 16004KT 10/04 A3034 RMK A01 T00950043  RH  070%=      5-min Rain = 0
KWA1 110015Z 15003KT 09/04 A3034 RMK A01 T00910041  RH  071%=      5-min Rain = 0
KWA1 110016Z 15003KT 09/04 A3034 RMK A01 T00910039  RH  070%=      5-min Rain = 0
KWA1 110017Z 13003KT 09/04 A3034 RMK A01 T00920040  RH  070%=      5-min Rain = 0
KWA1 110018Z 12003KT 09/04 A3034 RMK A01 T00910041  RH  071%=      5-min Rain = 0
KWA1 110019Z 12004KT 09/04 A3034 RMK A01 T00880041  RH  072%=      5-min Rain = 0
KWA1 110020Z 12004KT 09/04 A3034 RMK A01 T00860041  RH  073%=      5-min Rain = 0
KWA1 110021Z 12004KT 09/04 A3034 RMK A01 T00860042  RH  074%=      5-min Rain = 0
KWA1 110022Z 13004KT 09/04 A3034 RMK A01 T00850042  RH  075%=      5-min Rain = 0
KWA1 110023Z 13004KT 08/04 A3034 RMK A01 T00840042  RH  075%=      5-min Rain = 0
KWA1 110024Z 13005KT 08/04 A3034 RMK A01 T00840042  RH  075%=      5-min Rain = 0
KWA1 110025Z 14004KT 08/04 A3034 RMK A01 T00830043  RH  076%=      5-min Rain = 0
KWA1 110026Z 14005KT 08/04 A3034 RMK A01 T00830044  RH  077%=      5-min Rain = 0
KWA1 110027Z 14005KT 08/05 A3034 RMK A01 T00830045  RH  077%=      5-min Rain = 0
KWA1 110028Z 13005KT 08/04 A3034 RMK A01 T00830044  RH  077%=      5-min Rain = 0
KWA1 110029Z 13005KT 08/05 A3034 RMK A01 T00830045  RH  077%=      5-min Rain = 0
KWA1 110030Z 13005KT 08/05 A3034 RMK A01 T00830045  RH  077%=      5-min Rain = 0
KWA1 110031Z 13005KT 08/05 A3034 RMK A01 T00830045  RH  077%=      5-min Rain = 0
KWA1 110032Z 13005KT 08/05 A3034 RMK A01 T00820045  RH  077%=      5-min Rain = 0
KWA1 110033Z 13005KT 08/05 A3034 RMK A01 T00810045  RH  078%=      5-min Rain = 0
KWA1 110034Z 13005KT 08/04 A3034 RMK A01 T00810043  RH  077%=      5-min Rain = 0
KWA1 110035Z 13005KT 08/04 A3034 RMK A01 T00800042  RH  077%=      5-min Rain = 0
KWA1 110036Z 13005KT 08/04 A3034 RMK A01 T00790041  RH  077%=      5-min Rain = 0
KWA1 110037Z 13005KT 08/04 A3034 RMK A01 T00790041  RH  077%=      5-min Rain = 0
KWA1 110038Z 13005KT 08/04 A3034 RMK A01 T00780040  RH  077%=      5-min Rain = 0
KWA1 110039Z 13005KT 08/04 A3034 RMK A01 T00770040  RH  078%=      5-min Rain = 0
KWA1 110040Z 13005KT 08/04 A3034 RMK A01 T00760040  RH  078%=      5-min Rain = 0
KWA1 110041Z 13005KT 08/04 A3034 RMK A01 T00750040  RH  078%=      5-min Rain = 0
KWA1 110042Z 13005KT 08/04 A3034 RMK A01 T00750040  RH  079%=      5-min Rain = 0
KWA1 110043Z 13005KT 08/04 A3034 RMK A01 T00750040  RH  079%=      5-min Rain = 0
KWA1 110044Z 13005KT 07/04 A3034 RMK A01 T00740040  RH  079%=      5-min Rain = 0
KWA1 110045Z 13005KT 08/04 A3034 RMK A01 T00750040  RH  079%=      5-min Rain = 0
KWA1 110046Z 13005KT 07/04 A3034 RMK A01 T00740040  RH  079%=      5-min Rain = 0
KWA1 110047Z 13005KT 07/04 A3034 RMK A01 T00740040  RH  079%=      5-min Rain = 0
KWA1 110048Z 13005KT 07/04 A3034 RMK A01 T00740039  RH  079%=      5-min Rain = 0
KWA1 110049Z 13005KT 07/04 A3034 RMK A01 T00730039  RH  079%=      5-min Rain = 0
KWA1 110050Z 13005KT 07/04 A3034 RMK A01 T00730039  RH  079%=      5-min Rain = 0
KWA1 110051Z 13005KT 07/04 A3034 RMK A01 T00720039  RH  079%=      5-min Rain = 0
KWA1 110052Z 13005KT 07/04 A3034 RMK A01 T00710038  RH  079%=      5-min Rain = 0
KWA1 110053Z 13005KT 07/04 A3034 RMK A01 T00710037  RH  079%=      5-min Rain = 0
KWA1 110054Z 13005KT 07/04 A3035 RMK A01 T00700037  RH  079%=      5-min Rain = 0
KWA1 110055Z 14005KT 07/04 A3035 RMK A01 T00700037  RH  080%=      5-min Rain = 0
KWA1 110056Z 14005KT 07/04 A3035 RMK A01 T00700037  RH  080%=      5-min Rain = 0
KWA1 110057Z 13006KT 07/04 A3035 RMK A01 T00700037  RH  080%=      5-min Rain = 0
KWA1 110058Z 14006KT 07/04 A3035 RMK A01 T00690037  RH  080%=      5-min Rain = 0
KWA1 110059Z 14005KT 07/04 A3035 RMK A01 T00690037  RH  080%=      5-min Rain = 0
KWA1 110100Z 14006KT 07/04 A3035 RMK A01 T00680037  RH  080%=      5-min Rain = 0
KWA1 110101Z 14005KT 07/04 A3035 RMK A01 T00690037  RH  080%=      5-min Rain = 0
KWA1 110102Z 14005KT 07/04 A3035 RMK A01 T00700037  RH  079%=      5-min Rain = 0
KWA1 110103Z 14005KT 07/04 A3035 RMK A01 T00690036  RH  079%=      5-min Rain = 0
KWA1 110104Z 14005KT 07/04 A3035 RMK A01 T00680035  RH  079%=      5-min Rain = 0
KWA1 110105Z 14005KT 07/04 A3035 RMK A01 T00670035  RH  080%=      5-min Rain = 0
KWA1 110106Z 14005KT 07/04 A3035 RMK A01 T00660035  RH  080%=      5-min Rain = 0
KWA1 110107Z 14005KT 07/03 A3035 RMK A01 T00660034  RH  080%=      5-min Rain = 0
KWA1 110108Z 14005KT 07/03 A3035 RMK A01 T00650034  RH  081%=      5-min Rain = 0
KWA1 110109Z 14004KT 07/03 A3035 RMK A01 T00650034  RH  081%=      5-min Rain = 0
KWA1 110110Z 14004KT 06/03 A3035 RMK A01 T00640033  RH  081%=      5-min Rain = 0
KWA1 110111Z 14004KT 06/03 A3035 RMK A01 T00640033  RH  081%=      5-min Rain = 0
KWA1 110112Z 13004KT 06/03 A3035 RMK A01 T00640033  RH  081%=      5-min Rain = 0
KWA1 110113Z 13005KT 06/03 A3035 RMK A01 T00640033  RH  081%=      5-min Rain = 0
KWA1 110114Z 13005KT 06/03 A3035 RMK A01 T00640033  RH  081%=      5-min Rain = 0
KWA1 110115Z 14005KT 06/03 A3035 RMK A01 T00630033  RH  081%=      5-min Rain = 0
KWA1 110116Z 14005KT 06/03 A3035 RMK A01 T00630032  RH  081%=      5-min Rain = 0
KWA1 110117Z 14004KT 06/03 A3035 RMK A01 T00630032  RH  081%=      5-min Rain = 0
KWA1 110118Z 14004KT 06/03 A3035 RMK A01 T00620031  RH  080%=      5-min Rain = 0
KWA1 110119Z 14004KT 06/03 A3035 RMK A01 T00610030  RH  080%=      5-min Rain = 0
KWA1 110120Z 14005KT 06/03 A3035 RMK A01 T00610029  RH  080%=      5-min Rain = 0
KWA1 110121Z 15006KT 06/03 A3035 RMK A01 T00600029  RH  081%=      5-min Rain = 0
KWA1 110122Z 15006KT 06/03 A3035 RMK A01 T00590029  RH  081%=      5-min Rain = 0
KWA1 110123Z 15006KT 06/03 A3035 RMK A01 T00590029  RH  081%=      5-min Rain = 0
KWA1 110124Z 15006KT 06/03 A3035 RMK A01 T00590028  RH  081%=      5-min Rain = 0
KWA1 110125Z 15006KT 06/03 A3035 RMK A01 T00580028  RH  081%=      5-min Rain = 0
KWA1 110126Z 15006KT 06/03 A3035 RMK A01 T00570028  RH  082%=      5-min Rain = 0
KWA1 110127Z 15006KT 06/03 A3035 RMK A01 T00570028  RH  082%=      5-min Rain = 0
KWA1 110128Z 14006KT 06/03 A3035 RMK A01 T00570028  RH  082%=      5-min Rain = 0
KWA1 110129Z 13005KT 06/03 A3035 RMK A01 T00560028  RH  082%=      5-min Rain = 0
KWA1 110130Z 13004KT 06/03 A3035 RMK A01 T00560028  RH  082%=      5-min Rain = 0
KWA1 110131Z 13005KT 06/03 A3035 RMK A01 T00550028  RH  083%=      5-min Rain = 0
KWA1 110132Z 14005KT 06/03 A3035 RMK A01 T00550029  RH  083%=      5-min Rain = 0
KWA1 110133Z 14006KT 05/03 A3035 RMK A01 T00540029  RH  084%=      5-min Rain = 0
KWA1 110134Z 15005KT 05/03 A3035 RMK A01 T00530028  RH  084%=      5-min Rain = 0
KWA1 110135Z 15004KT 05/03 A3035 RMK A01 T00530028  RH  084%=      5-min Rain = 0
KWA1 110136Z 15005KT 05/03 A3035 RMK A01 T00520028  RH  085%=      5-min Rain = 0
KWA1 110137Z 14006KT 05/03 A3035 RMK A01 T00510028  RH  085%=      5-min Rain = 0
KWA1 110138Z 14006KT 05/03 A3035 RMK A01 T00510028  RH  085%=      5-min Rain = 0
KWA1 110139Z 14006KT 05/03 A3035 RMK A01 T00500027  RH  085%=      5-min Rain = 0
KWA1 110140Z 15006KT 05/03 A3035 RMK A01 T00500027  RH  085%=      5-min Rain = 0
KWA1 110141Z 15006KT 05/03 A3035 RMK A01 T00490027  RH  085%=      5-min Rain = 0
KWA1 110142Z 15006KT 05/03 A3035 RMK A01 T00490026  RH  085%=      5-min Rain = 0
KWA1 110143Z 16006KT 05/03 A3035 RMK A01 T00480026  RH  086%=      5-min Rain = 0
KWA1 110144Z 16006KT 05/03 A3035 RMK A01 T00470026  RH  086%=      5-min Rain = 0
KWA1 110145Z 16006KT 05/03 A3035 RMK A01 T00460026  RH  087%=      5-min Rain = 0
KWA1 110146Z 16006KT 05/03 A3035 RMK A01 T00460026  RH  087%=      5-min Rain = 0
KWA1 110147Z 16006KT 05/03 A3035 RMK A01 T00460026  RH  087%=      5-min Rain = 0
KWA1 110148Z 16006KT 05/03 A3035 RMK A01 T00460027  RH  087%=      5-min Rain = 0
KWA1 110149Z 16007KT 05/03 A3035 RMK A01 T00460026  RH  087%=      5-min Rain = 0
KWA1 110150Z 16007KT 05/03 A3035 RMK A01 T00470027  RH  087%=      5-min Rain = 0
KWA1 110151Z 16006KT 05/03 A3035 RMK A01 T00470027  RH  087%=      5-min Rain = 0
KWA1 110152Z 16007KT 05/03 A3035 RMK A01 T00470027  RH  087%=      5-min Rain = 0
KWA1 110153Z 16007KT 05/03 A3035 RMK A01 T00470027  RH  087%=      5-min Rain = 0
KWA1 110154Z 17006KT 05/03 A3035 RMK A01 T00470027  RH  087%=      5-min Rain = 0
KWA1 110155Z 16006KT 05/03 A3035 RMK A01 T00470026  RH  087%=      5-min Rain = 0
KWA1 110156Z 16006KT 05/03 A3035 RMK A01 T00460026  RH  087%=      5-min Rain = 0
KWA1 110157Z 16006KT 05/03 A3035 RMK A01 T00460026  RH  087%=      5-min Rain = 0
KWA1 110158Z 16006KT 05/03 A3035 RMK A01 T00460026  RH  087%=      5-min Rain = 0
KWA1 110159Z 16006KT 05/03 A3035 RMK A01 T00450026  RH  087%=      5-min Rain = 0
KWA1 110200Z 16006KT 05/03 A3035 RMK A01 T00450026  RH  087%=      5-min Rain = 0
KWA1 110201Z 16006KT 05/03 A3035 RMK A01 T00450026  RH  087%=      5-min Rain = 0
KWA1 110202Z 16006KT 05/03 A3035 RMK A01 T00450027  RH  088%=      5-min Rain = 0
KWA1 110203Z 16006KT 05/03 A3035 RMK A01 T00450026  RH  088%=      5-min Rain = 0
KWA1 110204Z 16006KT 05/03 A3035 RMK A01 T00450026  RH  087%=      5-min Rain = 0
KWA1 110205Z 16006KT 05/03 A3035 RMK A01 T00460027  RH  087%=      5-min Rain = 0
KWA1 110206Z 16006KT 05/03 A3035 RMK A01 T00460026  RH  087%=      5-min Rain = 0
KWA1 110207Z 16006KT 05/03 A3035 RMK A01 T00460027  RH  087%=      5-min Rain = 0
KWA1 110208Z 16006KT 05/03 A3035 RMK A01 T00460027  RH  087%=      5-min Rain = 0
KWA1 110209Z 16007KT 05/03 A3035 RMK A01 T00470027  RH  087%=      5-min Rain = 0
KWA1 110210Z 16007KT 05/03 A3035 RMK A01 T00470027  RH  087%=      5-min Rain = 0
KWA1 110211Z 16007KT 05/03 A3035 RMK A01 T00470027  RH  087%=      5-min Rain = 0
KWA1 110212Z 17007KT 05/03 A3035 RMK A01 T00470027  RH  087%=      5-min Rain = 0
KWA1 110213Z 17007KT 05/03 A3035 RMK A01 T00460027  RH  087%=      5-min Rain = 0
KWA1 110214Z 17007KT 05/03 A3035 RMK A01 T00460027  RH  088%=      5-min Rain = 0
KWA1 110215Z 17007KT 05/03 A3035 RMK A01 T00470028  RH  088%=      5-min Rain = 0
KWA1 110216Z 17007KT 05/03 A3035 RMK A01 T00480028  RH  087%=      5-min Rain = 0
KWA1 110217Z 17007KT 05/03 A3035 RMK A01 T00480028  RH  087%=      5-min Rain = 0
KWA1 110218Z 17008KT 05/03 A3036 RMK A01 T00490028  RH  087%=      5-min Rain = 0
KWA1 110219Z 17007KT 05/03 A3036 RMK A01 T00490028  RH  087%=      5-min Rain = 0
KWA1 110220Z 17007KT 05/03 A3036 RMK A01 T00490028  RH  086%=      5-min Rain = 0
KWA1 110221Z 17007KT 05/03 A3036 RMK A01 T00490028  RH  086%=      5-min Rain = 0
KWA1 110222Z 17008KT 05/03 A3036 RMK A01 T00490028  RH  086%=      5-min Rain = 0
KWA1 110223Z 17007KT 05/03 A3036 RMK A01 T00490028  RH  086%=      5-min Rain = 0
KWA1 110224Z 17007KT 05/03 A3036 RMK A01 T00490028  RH  086%=      5-min Rain = 0
KWA1 110225Z 17007KT 05/03 A3036 RMK A01 T00490028  RH  087%=      5-min Rain = 0
KWA1 110226Z 17007KT 05/03 A3036 RMK A01 T00480027  RH  087%=      5-min Rain = 0
KWA1 110227Z 17007KT 05/03 A3036 RMK A01 T00470027  RH  087%=      5-min Rain = 0
KWA1 110228Z 17007KT 05/03 A3036 RMK A01 T00470027  RH  087%=      5-min Rain = 0
KWA1 110229Z 17007KT 05/03 A3036 RMK A01 T00470027  RH  087%=      5-min Rain = 0
KWA1 110230Z 17007KT 05/03 A3036 RMK A01 T00470027  RH  087%=      5-min Rain = 0
KWA1 110231Z 17007KT 05/03 A3036 RMK A01 T00470027  RH  087%=      5-min Rain = 0
KWA1 110232Z 17007KT 05/03 A3036 RMK A01 T00470027  RH  087%=      5-min Rain = 0
KWA1 110233Z 17007KT 05/03 A3036 RMK A01 T00470027  RH  087%=      5-min Rain = 0
KWA1 110234Z 17007KT 05/03 A3036 RMK A01 T00470027  RH  087%=      5-min Rain = 0
KWA1 110235Z 17007KT 05/03 A3036 RMK A01 T00470027  RH  087%=      5-min Rain = 0
KWA1 110236Z 17007KT 05/03 A3036 RMK A01 T00470027  RH  087%=      5-min Rain = 0
KWA1 110237Z 17007KT 05/03 A3036 RMK A01 T00460026  RH  087%=      5-min Rain = 0
KWA1 110238Z 17006KT 05/03 A3036 RMK A01 T00460027  RH  087%=      5-min Rain = 0
KWA1 110239Z 17007KT 05/03 A3036 RMK A01 T00460026  RH  087%=      5-min Rain = 0
KWA1 110240Z 17006KT 05/03 A3036 RMK A01 T00450026  RH  087%=      5-min Rain = 0
KWA1 110241Z 17006KT 05/03 A3036 RMK A01 T00450026  RH  087%=      5-min Rain = 0
KWA1 110242Z 17007KT 05/03 A3036 RMK A01 T00450026  RH  087%=      5-min Rain = 0
KWA1 110243Z 17007KT 05/03 A3036 RMK A01 T00450026  RH  087%=      5-min Rain = 0
KWA1 110244Z 17007KT 05/03 A3036 RMK A01 T00450026  RH  087%=      5-min Rain = 0
KWA1 110245Z 17007KT 05/03 A3036 RMK A01 T00450026  RH  087%=      5-min Rain = 0
KWA1 110246Z 17007KT 05/03 A3036 RMK A01 T00450026  RH  087%=      5-min Rain = 0
KWA1 110247Z 17007KT 05/03 A3036 RMK A01 T00450025  RH  087%=      5-min Rain = 0
KWA1 110248Z 16007KT 05/03 A3036 RMK A01 T00450025  RH  087%=      5-min Rain = 0
KWA1 110249Z 16006KT 05/03 A3036 RMK A01 T00450025  RH  087%=      5-min Rain = 0
KWA1 110250Z 17006KT 04/02 A3036 RMK A01 T00440024  RH  087%=      5-min Rain = 0
KWA1 110251Z 16006KT 04/02 A3036 RMK A01 T00440024  RH  087%=      5-min Rain = 0
KWA1 110252Z 17006KT 04/02 A3036 RMK A01 T00430024  RH  087%=      5-min Rain = 0
KWA1 110253Z 17005KT 04/02 A3036 RMK A01 T00430024  RH  087%=      5-min Rain = 0
KWA1 110254Z 16005KT 04/02 A3036 RMK A01 T00420023  RH  088%=      5-min Rain = 0
KWA1 110255Z 17006KT 04/02 A3036 RMK A01 T00420023  RH  088%=      5-min Rain = 0
KWA1 110256Z 17006KT 04/02 A3036 RMK A01 T00410023  RH  088%=      5-min Rain = 0
KWA1 110257Z 17006KT 04/02 A3036 RMK A01 T00410023  RH  088%=      5-min Rain = 0
KWA1 110258Z 17006KT 04/02 A3036 RMK A01 T00410023  RH  089%=      5-min Rain = 0
KWA1 110259Z 17007KT 04/02 A3036 RMK A01 T00410024  RH  089%=      5-min Rain = 0
KWA1 110300Z 17007KT 04/03 A3036 RMK A01 T00410025  RH  089%=      5-min Rain = 0
KWA1 110301Z 17007KT 04/03 A3036 RMK A01 T00430025  RH  088%=      5-min Rain = 0
KWA1 110302Z 17008KT 04/03 A3036 RMK A01 T00440025  RH  088%=      5-min Rain = 0
KWA1 110303Z 17008KT 04/03 A3036 RMK A01 T00440025  RH  087%=      5-min Rain = 0
KWA1 110304Z 17007KT 04/02 A3036 RMK A01 T00440024  RH  087%=      5-min Rain = 0
KWA1 110305Z 17008KT 04/02 A3036 RMK A01 T00440024  RH  087%=      5-min Rain = 0
KWA1 110306Z 17008KT 04/02 A3036 RMK A01 T00440024  RH  087%=      5-min Rain = 0
KWA1 110307Z 17008KT 04/02 A3036 RMK A01 T00440024  RH  087%=      5-min Rain = 0
KWA1 110308Z 17007KT 04/02 A3036 RMK A01 T00440024  RH  087%=      5-min Rain = 0
KWA1 110309Z 17007KT 04/02 A3036 RMK A01 T00430023  RH  087%=      5-min Rain = 0
KWA1 110310Z 17008KT 04/02 A3036 RMK A01 T00430023  RH  087%=      5-min Rain = 0
KWA1 110311Z 17008KT 04/02 A3036 RMK A01 T00420023  RH  087%=      5-min Rain = 0
KWA1 110312Z 17007KT 04/02 A3036 RMK A01 T00410023  RH  088%=      5-min Rain = 0
KWA1 110313Z 17007KT 04/02 A3036 RMK A01 T00410023  RH  088%=      5-min Rain = 0
KWA1 110314Z 17007KT 04/02 A3036 RMK A01 T00410023  RH  088%=      5-min Rain = 0
KWA1 110315Z 17007KT 04/02 A3036 RMK A01 T00410023  RH  088%=      5-min Rain = 0
KWA1 110316Z 17007KT 04/02 A3036 RMK A01 T00410023  RH  088%=      5-min Rain = 0
KWA1 110317Z 17007KT 04/02 A3036 RMK A01 T00410023  RH  088%=      5-min Rain = 0
KWA1 110318Z 17007KT 04/02 A3036 RMK A01 T00410022  RH  088%=      5-min Rain = 0
KWA1 110319Z 17007KT 04/02 A3036 RMK A01 T00410023  RH  088%=      5-min Rain = 0
KWA1 110320Z 17008KT 04/02 A3036 RMK A01 T00410023  RH  088%=      5-min Rain = 0
KWA1 110321Z 17008KT 04/02 A3036 RMK A01 T00410023  RH  088%=      5-min Rain = 0
KWA1 110322Z 17008KT 04/02 A3036 RMK A01 T00410023  RH  088%=      5-min Rain = 0
KWA1 110323Z 17008KT 04/02 A3036 RMK A01 T00410023  RH  088%=      5-min Rain = 0
KWA1 110324Z 17008KT 04/02 A3036 RMK A01 T00420023  RH  088%=      5-min Rain = 0
KWA1 110325Z 17007KT 04/02 A3036 RMK A01 T00420023  RH  087%=      5-min Rain = 0
KWA1 110326Z 17007KT 04/02 A3036 RMK A01 T00420023  RH  087%=      5-min Rain = 0
KWA1 110327Z 17007KT 04/02 A3036 RMK A01 T00420022  RH  087%=      5-min Rain = 0
KWA1 110328Z 17007KT 04/02 A3036 RMK A01 T00420022  RH  087%=      5-min Rain = 0
KWA1 110329Z 17006KT 04/02 A3036 RMK A01 T00420022  RH  087%=      5-min Rain = 0
KWA1 110330Z 17006KT 04/02 A3036 RMK A01 T00410022  RH  087%=      5-min Rain = 0
KWA1 110331Z 17007KT 04/02 A3036 RMK A01 T00410022  RH  087%=      5-min Rain = 0
KWA1 110332Z 17007KT 04/02 A3036 RMK A01 T00410022  RH  088%=      5-min Rain = 0
KWA1 110333Z 17007KT 04/02 A3036 RMK A01 T00410022  RH  088%=      5-min Rain = 0
KWA1 110334Z 17007KT 04/02 A3036 RMK A01 T00410022  RH  088%=      5-min Rain = 0
KWA1 110335Z 17007KT 04/02 A3036 RMK A01 T00410023  RH  088%=      5-min Rain = 0
KWA1 110336Z 17007KT 04/02 A3036 RMK A01 T00420023  RH  088%=      5-min Rain = 0
KWA1 110337Z 17007KT 04/02 A3036 RMK A01 T00420023  RH  088%=      5-min Rain = 0
KWA1 110338Z 17007KT 04/02 A3036 RMK A01 T00430024  RH  087%=      5-min Rain = 0
KWA1 110339Z 18007KT 04/02 A3036 RMK A01 T00430024  RH  087%=      5-min Rain = 0
KWA1 110340Z 17007KT 04/02 A3036 RMK A01 T00430023  RH  087%=      5-min Rain = 0
KWA1 110341Z 17007KT 04/02 A3036 RMK A01 T00430023  RH  087%=      5-min Rain = 0
KWA1 110342Z 17007KT 04/02 A3036 RMK A01 T00430023  RH  087%=      5-min Rain = 0
KWA1 110343Z 17007KT 04/02 A3036 RMK A01 T00430023  RH  086%=      5-min Rain = 0
KWA1 110344Z 17007KT 04/02 A3036 RMK A01 T00430023  RH  086%=      5-min Rain = 0
KWA1 110345Z 17007KT 04/02 A3036 RMK A01 T00440023  RH  086%=      5-min Rain = 0
KWA1 110346Z 17007KT 04/02 A3036 RMK A01 T00440023  RH  086%=      5-min Rain = 0
KWA1 110347Z 17007KT 04/02 A3036 RMK A01 T00430023  RH  087%=      5-min Rain = 0
KWA1 110348Z 17007KT 04/02 A3036 RMK A01 T00440023  RH  087%=      5-min Rain = 0
KWA1 110349Z 17008KT 04/02 A3036 RMK A01 T00440023  RH  086%=      5-min Rain = 0
KWA1 110350Z 17007KT 04/02 A3036 RMK A01 T00440023  RH  086%=      5-min Rain = 0
KWA1 110351Z 17008KT 05/02 A3036 RMK A01 T00450023  RH  086%=      5-min Rain = 0
KWA1 110352Z 17007KT 05/02 A3036 RMK A01 T00450023  RH  086%=      5-min Rain = 0
KWA1 110353Z 17007KT 05/02 A3036 RMK A01 T00450023  RH  086%=      5-min Rain = 0
KWA1 110354Z 17007KT 05/02 A3036 RMK A01 T00450023  RH  085%=      5-min Rain = 0
KWA1 110355Z 17007KT 05/02 A3036 RMK A01 T00450023  RH  085%=      5-min Rain = 0
KWA1 110356Z 18007KT 04/02 A3036 RMK A01 T00440022  RH  085%=      5-min Rain = 0
KWA1 110357Z 18006KT 04/02 A3036 RMK A01 T00430022  RH  086%=      5-min Rain = 0
KWA1 110358Z 18007KT 04/02 A3036 RMK A01 T00420022  RH  087%=      5-min Rain = 0
KWA1 110359Z 18007KT 04/02 A3036 RMK A01 T00420022  RH  087%=      5-min Rain = 0
KWA1 110400Z 18007KT 04/02 A3036 RMK A01 T00420022  RH  087%=      5-min Rain = 0
KWA1 110401Z 18006KT 04/02 A3036 RMK A01 T00420022  RH  087%=      5-min Rain = 0
KWA1 110402Z 18006KT 04/02 A3036 RMK A01 T00420022  RH  087%=      5-min Rain = 0
KWA1 110403Z 19006KT 04/02 A3036 RMK A01 T00430022  RH  087%=      5-min Rain = 0
KWA1 110404Z 19006KT 04/02 A3036 RMK A01 T00430022  RH  086%=      5-min Rain = 0
KWA1 110405Z 19005KT 04/02 A3036 RMK A01 T00420022  RH  086%=      5-min Rain = 0
KWA1 110406Z 19005KT 04/02 A3036 RMK A01 T00420022  RH  087%=      5-min Rain = 0
KWA1 110407Z 19006KT 04/02 A3036 RMK A01 T00420022  RH  087%=      5-min Rain = 0
KWA1 110408Z 19006KT 04/02 A3036 RMK A01 T00410021  RH  087%=      5-min Rain = 0
KWA1 110409Z 19005KT 04/02 A3036 RMK A01 T00410022  RH  087%=      5-min Rain = 0
KWA1 110410Z 19005KT 04/02 A3036 RMK A01 T00410022  RH  088%=      5-min Rain = 0
KWA1 110411Z 19005KT 04/02 A3036 RMK A01 T00410022  RH  088%=      5-min Rain = 0
KWA1 110412Z 19006KT 04/02 A3036 RMK A01 T00410022  RH  088%=      5-min Rain = 0
KWA1 110413Z 19006KT 04/02 A3036 RMK A01 T00410022  RH  088%=      5-min Rain = 0
KWA1 110414Z 18006KT 04/02 A3036 RMK A01 T00410022  RH  088%=      5-min Rain = 0
KWA1 110415Z 18006KT 04/02 A3036 RMK A01 T00410022  RH  088%=      5-min Rain = 0
KWA1 110416Z 18006KT 04/02 A3036 RMK A01 T00410022  RH  088%=      5-min Rain = 0
KWA1 110417Z 18006KT 04/02 A3036 RMK A01 T00410022  RH  088%=      5-min Rain = 0
KWA1 110418Z 18006KT 04/02 A3036 RMK A01 T00410022  RH  087%=      5-min Rain = 0
KWA1 110419Z 18007KT 04/02 A3036 RMK A01 T00410022  RH  087%=      5-min Rain = 0
KWA1 110420Z 18007KT 04/02 A3036 RMK A01 T00410022  RH  088%=      5-min Rain = 0
KWA1 110421Z 18007KT 04/02 A3036 RMK A01 T00410022  RH  088%=      5-min Rain = 0
KWA1 110422Z 18007KT 04/02 A3036 RMK A01 T00410022  RH  088%=      5-min Rain = 0
KWA1 110423Z 18007KT 04/02 A3036 RMK A01 T00410022  RH  088%=      5-min Rain = 0
KWA1 110424Z 18007KT 04/02 A3036 RMK A01 T00410023  RH  088%=      5-min Rain = 0
KWA1 110425Z 17006KT 04/02 A3036 RMK A01 T00410022  RH  087%=      5-min Rain = 0
KWA1 110426Z 17006KT 04/02 A3036 RMK A01 T00410022  RH  087%=      5-min Rain = 0
KWA1 110427Z 17007KT 04/02 A3036 RMK A01 T00410022  RH  087%=      5-min Rain = 0
KWA1 110428Z 18007KT 04/02 A3036 RMK A01 T00410022  RH  088%=      5-min Rain = 0
KWA1 110429Z 18007KT 04/02 A3036 RMK A01 T00410022  RH  088%=      5-min Rain = 0
KWA1 110430Z 18007KT 04/02 A3036 RMK A01 T00410022  RH  088%=      5-min Rain = 0
KWA1 110431Z 18007KT 04/02 A3036 RMK A01 T00410022  RH  088%=      5-min Rain = 0
KWA1 110432Z 18008KT 04/02 A3036 RMK A01 T00410022  RH  087%=      5-min Rain = 0
KWA1 110433Z 18007KT 04/02 A3036 RMK A01 T00410022  RH  087%=      5-min Rain = 0
KWA1 110434Z 18007KT 04/02 A3036 RMK A01 T00410022  RH  087%=      5-min Rain = 0
KWA1 110435Z 18007KT 04/02 A3036 RMK A01 T00410022  RH  087%=      5-min Rain = 0
KWA1 110436Z 18007KT 04/02 A3036 RMK A01 T00420023  RH  087%=      5-min Rain = 0
KWA1 110437Z 18007KT 04/02 A3036 RMK A01 T00420023  RH  087%=      5-min Rain = 0
KWA1 110438Z 18006KT 04/02 A3036 RMK A01 T00420023  RH  087%=      5-min Rain = 0
KWA1 110439Z 19006KT 04/02 A3036 RMK A01 T00420023  RH  087%=      5-min Rain = 0
KWA1 110440Z 19006KT 04/02 A3036 RMK A01 T00420023  RH  088%=      5-min Rain = 0
KWA1 110441Z 19006KT 04/02 A3036 RMK A01 T00420024  RH  088%=      5-min Rain = 0
KWA1 110442Z 19006KT 04/02 A3036 RMK A01 T00420023  RH  088%=      5-min Rain = 0
KWA1 110443Z 19006KT 04/02 A3036 RMK A01 T00420023  RH  087%=      5-min Rain = 0
KWA1 110444Z 19006KT 04/02 A3036 RMK A01 T00420022  RH  087%=      5-min Rain = 0
KWA1 110445Z 19005KT 04/02 A3036 RMK A01 T00410022  RH  087%=      5-min Rain = 0
KWA1 110446Z 20005KT 04/02 A3036 RMK A01 T00400021  RH  088%=      5-min Rain = 0
KWA1 110447Z 19005KT 04/02 A3036 RMK A01 T00390021  RH  088%=      5-min Rain = 0
KWA1 110448Z 19005KT 04/02 A3036 RMK A01 T00390020  RH  088%=      5-min Rain = 0
KWA1 110449Z 19005KT 04/02 A3036 RMK A01 T00370019  RH  088%=      5-min Rain = 0
KWA1 110450Z 18006KT 04/02 A3036 RMK A01 T00370019  RH  088%=      5-min Rain = 0
KWA1 110451Z 18006KT 04/02 A3036 RMK A01 T00370019  RH  089%=      5-min Rain = 0
KWA1 110452Z 18006KT 04/02 A3036 RMK A01 T00370021  RH  089%=      5-min Rain = 0
KWA1 110453Z 18007KT 04/02 A3036 RMK A01 T00380021  RH  089%=      5-min Rain = 0
KWA1 110454Z 18007KT 04/02 A3036 RMK A01 T00380021  RH  089%=      5-min Rain = 0
KWA1 110455Z 18006KT 04/02 A3036 RMK A01 T00390022  RH  089%=      5-min Rain = 0
KWA1 110456Z 18007KT 04/02 A3036 RMK A01 T00400022  RH  088%=      5-min Rain = 0
KWA1 110457Z 18006KT 04/02 A3036 RMK A01 T00400022  RH  088%=      5-min Rain = 0
KWA1 110458Z 19006KT 04/02 A3036 RMK A01 T00400022  RH  088%=      5-min Rain = 0
KWA1 110459Z 19006KT 04/02 A3036 RMK A01 T00400022  RH  088%=      5-min Rain = 0
KWA1 110500Z 19005KT 04/02 A3036 RMK A01 T00410022  RH  088%=      5-min Rain = 0
KWA1 110501Z 19006KT 04/02 A3036 RMK A01 T00410021  RH  087%=      5-min Rain = 0
KWA1 110502Z 19006KT 04/02 A3036 RMK A01 T00400020  RH  087%=      5-min Rain = 0
KWA1 110503Z 19006KT 04/02 A3036 RMK A01 T00390020  RH  087%=      5-min Rain = 0
KWA1 110504Z 19005KT 04/02 A3036 RMK A01 T00380019  RH  087%=      5-min Rain = 0
KWA1 110505Z 19005KT 04/02 A3036 RMK A01 T00380019  RH  088%=      5-min Rain = 0
KWA1 110506Z 19005KT 04/02 A3036 RMK A01 T00370018  RH  088%=      5-min Rain = 0
KWA1 110507Z 19006KT 04/02 A3036 RMK A01 T00360018  RH  088%=      5-min Rain = 0
KWA1 110508Z 18006KT 04/02 A3036 RMK A01 T00360018  RH  088%=      5-min Rain = 0
KWA1 110509Z 18006KT 04/02 A3036 RMK A01 T00360019  RH  088%=      5-min Rain = 0
KWA1 110510Z 19006KT 04/02 A3036 RMK A01 T00360019  RH  088%=      5-min Rain = 0
KWA1 110511Z 19006KT 04/02 A3036 RMK A01 T00360019  RH  088%=      5-min Rain = 0
KWA1 110512Z 19006KT 04/02 A3036 RMK A01 T00370019  RH  088%=      5-min Rain = 0
KWA1 110513Z 19006KT 04/02 A3036 RMK A01 T00370019  RH  088%=      5-min Rain = 0
KWA1 110514Z 19006KT 04/02 A3036 RMK A01 T00370019  RH  088%=      5-min Rain = 0
KWA1 110515Z 18006KT 04/02 A3036 RMK A01 T00370019  RH  088%=      5-min Rain = 0
KWA1 110516Z 19006KT 04/02 A3036 RMK A01 T00380019  RH  087%=      5-min Rain = 0
KWA1 110517Z 19006KT 04/02 A3036 RMK A01 T00380019  RH  087%=      5-min Rain = 0
KWA1 110518Z 19006KT 04/02 A3036 RMK A01 T00380018  RH  087%=      5-min Rain = 0
KWA1 110519Z 19005KT 04/02 A3036 RMK A01 T00370018  RH  087%=      5-min Rain = 0
KWA1 110520Z 19005KT 04/02 A3036 RMK A01 T00360017  RH  087%=      5-min Rain = 0
KWA1 110521Z 19005KT 04/02 A3036 RMK A01 T00350017  RH  088%=      5-min Rain = 0
KWA1 110522Z 19005KT 03/02 A3036 RMK A01 T00340016  RH  088%=      5-min Rain = 0
KWA1 110523Z 19005KT 03/02 A3036 RMK A01 T00330016  RH  088%=      5-min Rain = 0
KWA1 110524Z 19006KT 03/02 A3036 RMK A01 T00330015  RH  088%=      5-min Rain = 0
KWA1 110525Z 19006KT 03/02 A3036 RMK A01 T00320015  RH  089%=      5-min Rain = 0
KWA1 110526Z 19007KT 03/02 A3036 RMK A01 T00320016  RH  090%=      5-min Rain = 0
KWA1 110527Z 19007KT 03/02 A3036 RMK A01 T00320017  RH  090%=      5-min Rain = 0
KWA1 110528Z 19007KT 03/02 A3036 RMK A01 T00330018  RH  090%=      5-min Rain = 0
KWA1 110529Z 19006KT 03/02 A3036 RMK A01 T00340018  RH  089%=      5-min Rain = 0
KWA1 110530Z 19007KT 04/02 A3036 RMK A01 T00350018  RH  089%=      5-min Rain = 0
KWA1 110531Z 19007KT 04/02 A3036 RMK A01 T00360018  RH  088%=      5-min Rain = 0
KWA1 110532Z 19006KT 04/02 A3036 RMK A01 T00370019  RH  088%=      5-min Rain = 0
KWA1 110533Z 19006KT 04/02 A3036 RMK A01 T00380019  RH  087%=      5-min Rain = 0
KWA1 110534Z 19006KT 04/02 A3036 RMK A01 T00380018  RH  087%=      5-min Rain = 0
KWA1 110535Z 19006KT 04/02 A3036 RMK A01 T00380018  RH  087%=      5-min Rain = 0
KWA1 110536Z 19006KT 04/02 A3036 RMK A01 T00390018  RH  086%=      5-min Rain = 0
KWA1 110537Z 19006KT 04/02 A3036 RMK A01 T00390018  RH  086%=      5-min Rain = 0
KWA1 110538Z 18006KT 04/02 A3036 RMK A01 T00390018  RH  086%=      5-min Rain = 0
KWA1 110539Z 19007KT 04/02 A3036 RMK A01 T00390018  RH  086%=      5-min Rain = 0
KWA1 110540Z 19006KT 04/02 A3035 RMK A01 T00390018  RH  086%=      5-min Rain = 0
KWA1 110541Z 19006KT 04/02 A3035 RMK A01 T00400019  RH  086%=      5-min Rain = 0
KWA1 110542Z 19006KT 04/02 A3035 RMK A01 T00410019  RH  086%=      5-min Rain = 0
KWA1 110543Z 19006KT 04/02 A3035 RMK A01 T00410019  RH  085%=      5-min Rain = 0
KWA1 110544Z 19006KT 04/02 A3035 RMK A01 T00420019  RH  085%=      5-min Rain = 0
KWA1 110545Z 19006KT 04/02 A3035 RMK A01 T00430019  RH  085%=      5-min Rain = 0
KWA1 110546Z 19006KT 04/02 A3035 RMK A01 T00440019  RH  084%=      5-min Rain = 0
KWA1 110547Z 19006KT 04/02 A3035 RMK A01 T00440019  RH  084%=      5-min Rain = 0
KWA1 110548Z 19005KT 04/02 A3035 RMK A01 T00440018  RH  083%=      5-min Rain = 0
KWA1 110549Z 19006KT 04/02 A3035 RMK A01 T00430017  RH  083%=      5-min Rain = 0
KWA1 110550Z 19006KT 04/02 A3035 RMK A01 T00420017  RH  084%=      5-min Rain = 0
KWA1 110551Z 19006KT 04/02 A3035 RMK A01 T00430018  RH  084%=      5-min Rain = 0
KWA1 110552Z 19007KT 04/02 A3035 RMK A01 T00430018  RH  084%=      5-min Rain = 0
KWA1 110553Z 19006KT 04/02 A3035 RMK A01 T00430018  RH  084%=      5-min Rain = 0
KWA1 110554Z 19006KT 04/02 A3035 RMK A01 T00430018  RH  084%=      5-min Rain = 0
KWA1 110555Z 19006KT 04/02 A3035 RMK A01 T00420017  RH  083%=      5-min Rain = 0
KWA1 110556Z 19006KT 04/02 A3035 RMK A01 T00410016  RH  084%=      5-min Rain = 0
KWA1 110557Z 19006KT 04/02 A3035 RMK A01 T00410017  RH  084%=      5-min Rain = 0
KWA1 110558Z 20005KT 04/02 A3035 RMK A01 T00400016  RH  084%=      5-min Rain = 0
KWA1 110559Z 21003KT 04/01 A3035 RMK A01 T00380014  RH  084%=      5-min Rain = 0

Page generated in 0.1454 seconds.